ECMWFFLT1_sfc_dewp_000.txt.gz
Dewpoint
44 44 46 46 48 51 48 49 49 49 50 52 52 53 54 55 53 52 52 53 53 54 54 53 53 53 53 54 55 55 55 56 58 58 58 59 59 59 60 60 60 60 60 60 59 58 56 55 55 58 58 58 59 59 58 57 58 59 60 59 59 60 61
46 46 49 51 49 51 47 48 49 48 50 50 51 53 53 54 54 52 52 52 52 53 54 51 52 52 52 52 53 53 54 54 56 57 57 57 58 57 58 58 60 60 60 60 60 60 58 56 55 56 56 57 58 59 59 59 59 59 59 59 58 58 59
49 47 47 48 48 47 47 48 49 48 49 50 51 51 51 51 51 52 51 51 52 53 53 50 50 50 51 51 51 52 52 52 54 54 54 55 55 56 57 57 57 57 57 58 59 58 58 59 55 54 56 57 56 57 58 59 59 60 59 59 59 58 59
48 47 47 47 47 46 47 47 48 47 49 49 50 51 51 52 52 53 51 51 52 54 51 50 50 50 50 50 50 51 51 51 52 52 52 53 53 54 55 56 56 56 55 55 55 56 56 56 56 56 56 56 56 56 58 60 59 58 58 59 59 58 59
48 48 47 47 47 47 47 47 47 48 49 49 49 50 50 50 51 51 52 50 50 49 49 49 49 49 49 49 49 50 50 50 51 52 51 51 51 52 52 54 55 55 55 55 55 56 56 56 56 55 56 57 57 57 57 59 59 58 58 58 58 58 58
48 48 47 47 47 47 47 47 47 48 47 49 49 49 49 49 50 48 48 49 49 50 49 49 48 48 48 48 48 49 49 49 49 49 50 50 50 50 51 52 53 53 53 54 55 55 56 56 56 55 54 57 56 56 58 59 59 60 58 58 58 58 57
48 48 47 46 47 47 47 47 48 49 49 49 49 49 49 49 50 50 49 49 49 50 49 48 48 49 48 48 47 48 48 48 48 48 49 49 49 49 50 51 51 52 52 53 54 54 54 54 53 53 53 54 56 55 56 57 59 56 57 58 59 59 59
48 48 47 47 47 47 47 47 48 48 49 49 49 49 50 50 49 48 48 48 48 48 48 48 47 47 47 47 48 48 49 48 47 49 48 47 47 48 48 49 50 50 50 51 52 52 52 52 52 53 53 51 52 55 53 56 58 58 56 58 59 59 60
49 48 47 48 47 47 47 47 48 48 49 49 48 50 49 49 49 49 50 48 47 47 48 47 47 47 47 46 46 46 47 50 46 47 47 46 47 47 47 48 47 47 48 49 50 50 51 52 52 53 54 53 51 49 52 51 55 54 58 57 58 58 58
48 46 46 46 47 47 47 47 48 48 48 49 49 50 49 48 48 48 48 48 47 47 47 47 47 46 46 45 45 45 46 46 48 46 47 46 46 47 47 46 46 46 47 49 48 49 49 50 50 52 53 52 53 51 50 49 50 51 54 57 55 57 58
48 47 45 45 46 47 47 47 47 47 47 48 49 50 49 48 48 52 48 47 47 47 47 46 46 45 45 45 45 45 45 46 45 46 47 46 46 47 47 45 45 45 46 47 47 48 48 48 49 49 50 52 54 52 52 50 50 52 53 57 58 58 60
48 48 46 46 46 46 46 47 46 47 47 48 50 49 48 47 49 47 47 47 47 46 45 46 46 45 44 44 46 45 45 45 45 45 45 46 46 46 45 44 45 45 46 46 46 47 48 48 48 48 49 50 50 52 52 52 50 51 54 55 58 59 60
48 48 47 46 46 46 46 47 46 46 46 49 48 48 48 48 48 47 47 47 45 45 45 45 44 44 44 44 45 44 44 44 44 44 44 45 44 45 44 44 44 44 45 45 45 46 46 47 48 48 48 49 49 50 52 52 51 49 52 53 55 57 58
48 48 47 46 46 46 46 47 47 46 47 48 48 47 47 48 47 47 46 47 45 45 43 43 44 44 44 43 44 44 44 44 43 43 45 44 44 44 44 43 44 44 45 45 45 45 46 46 47 47 48 48 49 49 49 49 49 48 50 53 56 55 58
48 47 47 47 46 46 46 47 47 47 46 47 47 47 47 47 47 46 46 45 44 43 43 43 43 43 43 43 43 44 44 43 43 43 43 42 43 43 44 43 43 44 44 44 45 44 44 44 44 45 45 46 46 47 49 46 46 47 47 49 53 56 57
48 47 47 47 46 46 46 47 47 47 46 46 47 47 47 46 45 45 44 43 43 43 43 43 43 43 43 42 42 42 43 43 42 42 42 42 42 43 43 43 43 43 44 44 44 44 45 44 44 44 45 45 46 47 46 46 46 45 46 46 50 51 55
48 47 47 47 47 47 47 47 48 47 46 46 46 46 46 45 44 44 44 43 43 43 43 43 43 42 42 42 42 41 41 42 42 42 42 42 42 42 42 42 43 43 44 43 43 43 43 44 44 43 43 45 45 44 45 46 46 45 45 46 48 50 49
48 48 47 47 47 47 47 47 47 46 46 45 45 45 45 44 43 43 43 42 42 42 42 41 41 41 41 42 42 42 41 41 42 42 42 42 44 43 42 42 42 42 43 43 42 42 42 43 40 40 40 41 41 42 44 44 44 44 44 44 44 46 48
49 49 48 47 47 47 47 47 47 46 45 45 45 45 44 44 44 43 42 42 41 41 41 41 41 40 40 41 41 41 42 42 42 41 41 42 41 42 42 41 42 43 42 41 40 41 41 41 40 40 39 40 40 41 42 44 45 43 43 42 42 43 46
50 49 49 48 48 47 47 47 46 46 46 44 44 44 44 44 44 42 41 41 41 41 41 40 40 40 39 39 40 40 41 41 40 41 41 41 41 41 42 42 42 42 40 40 40 39 40 40 41 40 40 40 38 39 39 39 39 39 39 39 40 42 43
49 49 49 49 48 48 47 46 46 46 46 44 44 44 43 43 42 41 41 41 41 42 40 40 39 39 40 40 40 40 40 40 40 40 40 40 40 40 40 40 40 40 40 40 40 40 41 40 40 39 39 39 39 39 38 39 39 38 38 39 39 40 42
49 49 48 48 48 48 47 46 46 46 45 45 45 44 43 42 41 41 41 41 41 41 40 40 40 40 40 39 39 38 38 38 38 39 39 39 39 39 39 40 40 40 41 42 41 41 40 40 40 39 39 39 39 39 39 38 37 37 38 39 39 40 41
48 48 48 48 48 48 47 47 46 45 45 45 44 43 42 42 41 40 40 40 41 40 40 41 43 41 41 40 38 37 38 38 38 38 38 38 38 38 39 39 41 41 42 41 41 39 39 39 40 40 39 39 38 38 37 37 36 36 37 37 38 39 39
48 48 48 48 48 48 47 47 46 46 46 45 43 42 41 40 40 40 40 39 39 39 39 40 39 37 37 38 38 37 37 37 37 37 37 37 37 37 37 37 38 39 40 40 40 38 38 38 37 37 38 39 39 39 37 37 36 36 35 36 37 38 39
47 47 47 47 48 47 48 47 46 46 45 44 44 42 41 40 40 39 39 38 38 38 38 41 37 37 37 37 38 39 37 36 36 36 36 36 35 36 35 36 36 37 37 37 37 37 38 37 37 37 36 36 36 37 37 38 36 36 36 35 35 36 37
47 47 47 47 46 46 46 46 44 44 44 43 42 42 40 41 39 38 38 37 37 38 37 39 37 37 37 36 36 37 35 35 35 35 35 34 35 35 34 35 35 35 35 37 37 36 36 36 37 36 37 37 37 36 35 35 36 38 37 36 35 35 35
47 47 46 46 46 45 45 45 45 44 43 43 42 41 40 40 39 38 37 36 36 36 35 38 37 37 37 36 35 35 36 35 35 34 34 34 34 34 34 34 33 34 34 35 35 35 35 35 35 35 35 35 35 36 36 36 35 36 37 36 36 36 37
47 46 45 46 46 45 45 45 44 43 43 43 42 41 41 40 38 38 36 34 34 34 34 36 36 36 36 35 35 35 35 35 35 34 34 34 34 34 34 34 34 33 33 34 34 35 35 35 35 35 35 35 35 35 35 35 35 35 35 37 37 37 37
46 46 45 45 45 45 44 43 43 43 43 42 42 42 40 40 38 36 35 34 34 32 32 35 35 35 35 35 35 36 35 34 33 33 33 33 33 33 33 33 33 33 33 33 34 34 35 35 34 34 34 34 34 34 35 35 36 36 36 37 37 37 37
45 45 45 45 45 45 43 43 43 43 41 41 41 40 39 39 38 36 35 34 32 30 30 33 34 35 35 34 35 34 33 33 33 33 32 32 32 33 33 33 33 33 33 33 34 34 34 35 34 33 33 33 34 34 34 35 35 35 35 35 35 35 35
45 45 45 44 44 44 44 43 42 42 41 41 41 40 39 39 38 36 34 33 31 28 28 31 34 34 34 34 35 33 32 32 32 32 32 32 33 33 33 35 35 34 33 33 33 33 33 33 32 32 32 32 32 32 33 35 35 36 36 36 35 35 35
44 45 45 43 43 43 42 42 42 43 42 42 41 40 40 37 36 35 34 33 36 32 28 30 34 34 34 34 35 34 33 32 31 31 31 31 32 32 32 34 35 34 34 33 33 33 33 33 32 32 31 31 30 30 31 32 33 33 34 34 35 35 35
45 45 43 43 43 43 43 42 41 42 42 42 41 39 39 37 35 34 34 34 33 34 31 30 33 34 35 35 35 35 33 32 32 30 30 30 31 31 32 32 33 33 33 33 33 33 33 33 32 32 32 31 30 30 31 32 32 32 32 33 33 34 35
46 45 44 43 43 43 43 42 41 41 39 38 38 36 36 35 35 34 34 34 32 33 33 31 32 34 34 35 34 34 33 32 31 31 30 31 30 30 30 31 32 33 33 33 33 33 33 33 33 33 32 32 31 32 33 32 32 34 33 34 34 35 35
46 44 44 43 42 43 41 41 41 41 39 37 36 35 35 34 33 33 33 33 32 32 33 36 33 34 34 35 34 34 33 33 33 32 32 30 30 31 30 31 31 32 33 33 33 33 33 33 33 34 32 33 33 33 33 33 33 33 33 33 33 33 33
45 43 40 41 41 41 40 40 39 38 36 35 34 33 33 33 32 32 32 31 31 31 32 33 35 35 34 34 34 34 34 33 33 34 32 31 31 31 32 32 32 33 33 33 33 33 33 33 33 32 33 33 33 33 33 33 32 32 31 31 31 31 32
43 42 41 41 42 39 38 37 37 36 35 34 32 32 31 31 31 32 31 31 31 31 31 31 32 34 33 33 33 33 33 33 33 33 33 32 32 32 32 32 32 33 33 33 33 33 33 33 33 33 33 33 33 33 33 33 33 32 32 32 32 31 31

ECMWFFLT1_sfc_dewp_003.txt.gz
Dewpoint
53 53 54 56 57 56 54 55 55 56 57 57 58 56 57 57 58 57 57 56 53 52 51 52 53 54 55 55 58 58 58 58 59 58 58 59 59 58 62 62 62 62 61 61 60 58 58 56 57 60 61 60 60 60 60 59 59 60 62 62 59 59 61
53 52 52 54 55 56 55 55 56 54 56 58 56 57 57 56 56 55 54 53 52 51 49 49 51 52 54 55 55 55 57 57 57 57 57 56 57 56 56 59 59 59 60 61 60 59 57 55 56 58 59 59 60 61 61 61 60 61 61 60 59 58 60
53 53 53 54 55 55 54 55 55 55 55 56 56 56 56 54 54 53 52 53 54 51 49 50 50 52 52 52 54 54 55 55 56 56 56 54 55 56 56 56 55 55 55 57 58 57 56 57 54 53 54 55 55 57 60 60 59 59 60 61 61 58 59
55 54 53 54 54 55 54 54 54 55 55 55 55 57 56 54 55 54 54 54 54 52 49 48 49 47 50 50 51 51 52 52 52 54 53 54 53 53 53 53 53 54 54 54 53 55 55 54 53 52 53 51 52 54 56 58 59 57 56 58 59 59 60
56 54 53 54 54 55 55 53 54 55 55 56 56 55 56 55 54 55 55 54 52 52 51 50 49 48 48 48 48 49 49 50 51 51 51 51 51 50 52 51 52 53 53 52 53 54 54 53 53 52 50 50 50 49 50 56 57 56 55 55 55 56 58
56 55 54 55 55 55 54 54 54 53 54 55 55 55 55 55 53 54 54 52 51 52 51 49 49 48 48 47 47 48 48 48 48 49 47 49 49 48 47 49 47 48 49 50 51 51 51 52 52 50 49 50 50 49 48 50 52 51 53 52 52 54 54
56 56 54 54 55 55 54 54 54 53 54 55 56 56 55 54 52 54 54 53 52 52 51 51 49 48 48 44 47 47 48 48 48 48 47 48 48 48 47 45 46 45 46 47 48 49 49 49 49 50 50 49 50 46 44 43 45 49 47 51 53 52 53
55 54 54 54 55 55 55 55 55 55 54 56 55 57 56 56 55 55 54 53 53 53 52 51 50 50 49 46 46 49 47 47 47 47 47 47 46 46 47 45 45 44 45 44 45 46 46 48 48 49 48 47 46 46 44 42 41 43 47 46 47 52 53
55 55 54 54 54 55 56 54 55 56 56 56 57 57 57 55 54 54 54 53 52 52 51 50 49 47 48 47 46 48 48 48 48 48 47 47 47 47 46 46 45 43 45 44 44 44 44 47 47 47 49 48 46 43 45 45 45 44 45 45 44 48 51
55 55 54 55 55 55 55 55 54 55 57 57 56 57 57 56 55 54 53 53 53 52 51 49 48 48 48 47 47 47 47 47 47 47 46 46 47 46 45 46 44 43 44 45 45 46 46 47 47 47 46 47 48 46 43 43 44 45 46 47 46 46 48
55 55 55 54 55 54 54 54 54 54 55 56 56 57 57 55 55 54 53 53 53 52 51 49 48 48 49 47 47 47 46 47 46 46 45 45 46 46 45 45 45 43 45 45 45 47 46 47 46 46 45 45 46 46 46 44 44 46 46 49 49 48 53
54 54 54 54 54 53 53 53 53 53 55 55 55 56 56 54 54 54 54 52 52 51 50 50 49 48 48 47 47 46 46 45 44 45 45 45 45 45 44 44 45 44 45 45 46 45 46 45 45 44 44 45 45 47 46 46 44 45 48 49 50 52 53
52 53 53 53 52 52 52 53 53 54 54 54 55 55 55 54 54 53 53 52 51 50 49 48 48 48 48 47 46 45 45 44 42 43 43 44 41 44 44 43 43 43 44 43 44 44 43 44 44 43 44 44 45 46 46 45 45 44 47 48 48 49 49
53 53 54 53 53 53 53 53 53 53 53 54 55 55 54 53 52 52 52 50 49 49 48 48 48 48 46 46 45 45 44 42 41 41 42 42 41 42 40 40 41 42 45 44 43 43 42 42 43 43 44 43 44 45 45 45 44 44 46 48 48 47 48
53 53 54 54 52 52 52 52 53 52 52 53 54 53 53 54 53 52 51 49 48 47 46 46 47 46 45 45 45 45 44 42 41 41 42 40 40 41 42 40 38 41 42 43 45 41 40 40 39 39 39 42 41 43 45 43 43 43 44 46 45 46 47
53 53 54 53 53 51 52 53 52 52 52 53 53 53 53 53 52 51 50 49 47 46 46 46 47 46 45 44 42 44 44 43 42 42 41 40 37 39 40 40 39 40 42 42 44 44 44 42 41 39 41 41 42 42 42 42 42 42 43 43 45 43 46
53 53 53 53 53 53 53 52 52 52 51 52 51 53 53 52 51 51 49 47 46 46 45 46 45 44 42 42 42 42 42 43 42 42 40 39 38 40 39 39 40 40 40 40 41 41 42 42 42 40 42 42 41 40 43 43 43 42 42 42 44 42 43
54 54 54 53 54 53 53 52 52 50 52 51 51 52 52 51 51 49 49 46 46 45 44 44 43 43 44 44 42 42 41 41 42 41 41 41 40 40 39 39 38 39 40 40 41 39 39 41 37 38 39 39 39 41 42 42 42 42 42 42 42 43 43
53 53 53 53 54 53 53 52 52 51 50 50 51 51 51 50 49 47 46 45 45 44 43 43 42 42 42 42 43 43 42 41 41 39 39 39 38 39 40 38 38 38 38 39 40 40 40 40 39 39 38 37 36 39 41 41 41 41 41 40 40 40 41
53 53 54 54 54 53 52 52 51 50 50 50 50 50 50 49 49 47 45 45 44 44 43 42 43 42 41 40 40 40 40 39 38 39 37 36 36 37 37 37 38 39 39 39 39 39 39 40 40 40 40 40 38 38 38 38 37 38 38 38 38 39 39
54 54 54 53 53 53 52 52 50 50 50 50 50 49 48 48 48 46 46 44 44 44 43 42 41 41 40 40 39 37 36 36 35 35 37 35 36 35 35 36 36 36 37 37 39 39 40 40 40 40 39 37 38 38 37 38 38 37 37 38 37 37 38
54 53 53 53 53 52 52 51 51 50 50 51 50 48 49 47 46 45 45 45 44 44 43 43 41 41 39 36 33 33 33 32 34 34 34 33 34 34 34 34 35 35 37 38 41 41 41 41 39 37 38 38 39 38 36 36 36 35 35 37 36 38 38
53 53 52 52 52 52 52 52 51 50 49 48 49 48 47 46 45 44 44 44 44 45 44 43 43 40 37 31 31 31 34 34 33 33 33 33 33 33 33 34 35 37 40 40 40 39 39 39 40 39 38 38 37 38 37 36 35 35 35 35 35 36 37
53 52 52 52 52 52 51 52 51 50 50 48 49 48 50 45 45 44 43 43 43 44 43 41 39 37 38 38 34 34 32 33 33 33 33 33 32 32 32 30 33 34 36 37 35 37 37 38 37 38 38 39 39 36 36 36 36 36 34 34 35 35 34
52 52 51 51 51 51 51 50 49 47 49 48 48 48 46 45 46 46 45 43 43 43 42 40 36 37 37 37 38 33 33 33 33 32 32 31 30 31 31 33 33 35 35 34 33 34 35 36 36 37 37 37 36 37 37 37 35 35 36 34 34 35 35
52 52 51 51 51 50 49 48 48 48 49 49 49 48 46 46 45 45 44 42 42 42 39 37 36 36 37 36 37 37 29 32 31 31 32 32 32 32 32 32 32 34 34 36 35 33 33 34 35 36 36 37 37 36 35 35 36 38 35 35 35 35 34
52 52 51 51 50 49 48 47 49 48 48 47 47 47 47 46 45 44 43 43 42 41 37 37 36 36 36 36 36 36 31 33 33 32 31 31 33 33 32 32 31 31 32 33 33 33 33 33 34 34 35 35 35 36 36 36 35 35 37 37 36 35 35
51 51 51 50 49 48 48 49 48 48 47 47 47 46 46 45 45 45 44 43 42 39 37 36 35 35 35 35 35 35 33 35 33 33 34 34 34 33 32 33 33 32 32 32 33 33 33 32 33 34 34 34 34 34 35 35 35 37 37 38 37 36 36
50 51 51 49 48 48 49 49 48 49 48 48 48 47 46 45 44 44 44 43 41 38 37 35 35 35 35 35 35 34 32 34 33 32 32 33 32 32 31 32 32 32 32 32 33 34 34 34 33 33 33 32 33 33 35 35 35 36 36 36 36 36 36
49 50 50 49 48 48 48 48 48 47 47 47 47 47 46 45 43 43 42 40 39 37 35 35 34 35 35 34 35 30 33 31 31 32 32 32 31 32 33 32 31 31 31 32 33 34 34 35 33 32 30 31 31 32 32 34 34 35 36 36 35 35 35
49 49 50 49 48 48 48 48 48 47 47 48 47 45 46 45 44 42 40 39 38 37 36 36 34 34 34 34 35 31 30 30 31 31 30 32 33 32 32 35 34 31 31 31 33 33 34 35 32 31 31 31 31 31 31 32 33 34 34 36 36 35 35
49 49 49 49 49 49 48 48 47 48 48 46 46 44 44 44 43 41 39 39 39 37 37 36 34 33 34 34 35 32 30 28 30 30 30 30 32 33 32 33 35 35 33 32 33 33 33 33 32 32 31 31 30 30 31 32 32 32 33 33 34 34 35
49 49 49 49 49 48 48 47 47 45 44 43 43 43 45 42 42 40 39 37 38 38 37 37 36 33 33 34 35 33 30 29 29 30 30 29 31 32 32 32 33 33 33 33 33 33 33 33 33 32 32 30 30 30 31 31 32 32 32 33 33 33 33
49 49 49 49 48 47 47 46 45 45 45 44 44 43 43 41 40 39 38 39 38 39 39 39 38 34 34 35 35 35 32 31 31 30 30 30 30 31 30 30 31 32 33 33 33 33 33 33 33 32 32 31 31 32 32 32 32 33 32 32 32 32 33
50 50 49 48 47 46 46 46 46 46 45 46 44 42 40 39 41 39 38 38 38 38 38 38 38 36 35 35 35 35 35 34 34 33 31 30 31 31 31 30 29 31 33 33 33 33 33 33 33 32 31 31 32 32 32 32 31 31 31 31 30 31 31
49 49 48 47 46 45 45 45 44 43 43 42 42 42 41 39 39 38 38 37 38 39 39 38 36 36 35 35 34 34 34 34 33 34 32 32 33 32 32 31 31 34 33 33 33 33 33 33 33 31 31 32 32 32 32 31 31 31 31 31 31 31 30
48 47 47 46 46 45 46 45 45 44 43 41 41 41 40 39 38 38 37 31 35 36 38 37 35 34 35 33 33 33 33 33 33 33 33 33 33 31 30 32 32 33 33 33 33 33 33 33 31 31 32 32 32 33 32 31 31 32 32 32 32 31 31

ECMWFFLT1_sfc_dewp_006.txt.gz
Dewpoint
46 50 53 54 54 53 52 54 55 56 56 55 56 55 54 53 54 54 55 56 53 53 52 53 54 54 55 56 58 58 57 58 58 58 59 58 58 58 61 59 60 61 61 61 60 58 58 55 58 61 62 61 61 61 61 62 62 61 63 62 58 58 60
49 50 50 52 52 53 55 53 55 54 55 55 53 55 55 52 51 50 50 49 48 46 45 47 52 54 57 58 58 57 57 56 57 57 55 55 56 56 56 56 56 56 58 60 59 57 57 56 55 59 58 61 60 59 61 62 60 61 61 60 59 58 60
48 48 48 50 53 54 53 55 54 53 52 53 54 52 50 46 47 47 47 48 48 46 45 46 49 51 53 54 56 57 57 57 56 56 54 53 53 55 53 54 52 53 53 55 54 54 54 56 53 52 53 54 56 59 59 57 56 56 58 60 60 56 57
49 50 50 52 51 53 52 53 52 51 51 50 52 52 50 49 50 49 49 49 50 49 46 45 47 46 50 51 52 54 54 55 54 55 55 55 54 53 53 51 51 52 52 51 52 52 52 52 51 50 50 47 46 49 54 55 55 53 50 52 54 56 57
51 50 51 51 52 52 52 50 50 51 51 50 51 49 50 51 51 50 51 50 49 49 49 48 47 47 48 48 49 50 51 52 52 52 52 52 52 51 52 51 50 51 52 50 50 51 51 49 50 48 45 43 42 42 43 54 48 50 49 45 43 51 55
52 51 50 51 51 49 50 50 49 49 50 50 49 50 51 52 51 52 51 48 49 49 49 47 48 48 49 47 48 50 50 50 50 51 49 51 50 50 48 49 47 48 49 50 50 50 50 50 50 47 45 45 45 45 41 41 42 40 41 44 46 46 48
53 53 50 51 52 49 49 50 48 48 49 51 51 51 50 50 51 52 51 51 49 49 49 50 50 49 49 45 49 49 50 49 50 51 50 51 50 49 48 46 47 45 47 48 49 49 49 48 47 47 47 45 45 40 36 34 35 35 37 41 43 46 47
52 51 50 50 53 50 50 51 48 49 47 51 50 52 50 51 53 53 52 51 51 50 49 50 49 49 49 47 48 51 50 50 50 50 50 50 49 48 48 47 46 44 44 44 45 46 43 45 46 46 46 42 40 42 40 36 37 38 38 39 39 39 42
54 52 50 50 53 53 53 51 49 50 49 49 52 54 52 53 53 53 53 52 51 51 50 49 49 48 49 48 48 50 50 49 51 51 50 50 50 50 49 47 46 43 45 43 43 43 42 46 46 46 46 44 42 39 41 41 40 37 40 41 42 43 43
58 57 52 55 56 56 55 53 50 50 51 51 52 55 54 53 53 53 53 53 52 51 50 49 49 49 49 49 49 50 50 50 50 49 49 49 50 49 49 49 46 46 46 47 45 46 47 48 46 46 44 43 44 43 40 39 42 42 40 41 41 42 43
58 58 57 58 58 57 56 55 53 51 52 52 53 55 54 54 53 53 53 53 53 51 50 49 48 49 50 48 49 48 48 49 49 48 48 47 48 48 46 47 46 46 48 47 47 48 47 49 47 46 47 46 45 43 42 41 42 44 43 44 42 42 48
58 58 58 58 59 57 56 54 54 53 53 54 51 54 55 53 53 53 53 53 52 51 50 50 50 49 49 49 49 48 49 49 47 47 46 47 46 47 46 47 45 44 46 47 48 48 49 47 47 45 46 46 46 47 46 45 43 44 47 46 46 45 45
56 56 58 59 58 56 56 55 54 55 55 52 51 53 52 52 53 52 52 52 52 51 50 49 49 49 49 49 48 47 47 47 46 46 46 45 42 46 46 45 45 43 44 42 45 46 45 46 47 44 45 46 46 47 46 45 44 44 45 45 46 45 45
58 56 57 58 58 57 56 56 55 55 54 53 51 52 51 51 50 52 51 51 50 50 50 50 49 49 49 48 47 47 46 44 43 43 45 46 44 45 41 41 42 43 46 45 44 44 42 42 44 45 44 43 43 45 45 45 43 43 45 47 46 44 45
57 57 58 58 58 56 56 56 57 55 55 53 51 50 50 51 51 51 50 49 50 49 48 48 48 48 47 48 48 48 47 44 43 43 45 42 43 44 46 43 40 43 42 40 45 40 38 39 38 38 39 43 40 42 44 42 42 42 43 45 44 44 44
54 57 57 57 58 56 56 56 56 56 55 53 52 51 49 51 50 50 50 50 49 48 47 47 48 48 47 47 46 47 47 45 45 46 45 43 39 41 43 43 42 43 44 43 44 44 44 42 41 37 41 41 42 42 41 40 41 41 42 42 44 42 43
56 56 56 56 57 57 55 56 55 55 53 53 52 52 49 51 50 49 50 49 49 48 47 47 47 47 46 45 45 45 44 45 45 44 43 41 39 40 41 41 42 42 42 42 42 41 41 42 42 39 40 41 43 43 45 45 44 43 41 41 42 39 40
56 56 57 56 56 56 56 55 55 53 53 53 52 52 51 52 50 49 51 49 48 47 47 47 46 46 47 46 45 45 44 43 45 43 43 42 44 41 40 40 39 40 42 42 42 41 40 43 38 39 39 37 37 38 42 43 43 42 42 41 42 42 42
57 56 57 58 58 55 55 54 54 54 52 52 53 53 53 51 50 48 50 49 48 47 46 46 45 45 45 46 46 45 44 44 43 41 42 40 38 38 40 38 39 39 38 41 41 42 43 42 41 41 40 38 36 38 41 41 41 42 41 40 41 41 42
57 57 57 57 57 56 55 55 54 53 52 52 52 53 52 51 51 50 50 49 48 47 46 46 46 46 45 44 45 44 45 44 43 42 39 35 36 37 37 36 38 39 39 39 39 40 41 42 42 42 42 43 40 40 40 40 39 38 39 39 39 40 39
57 57 56 56 55 56 54 54 54 53 53 53 52 52 51 53 52 50 49 48 47 47 46 46 45 45 44 45 45 45 43 43 39 39 39 35 36 36 36 36 36 35 36 36 38 38 38 38 38 39 39 40 41 41 40 39 39 38 38 39 37 37 37
54 55 55 55 55 55 55 54 54 53 53 53 53 52 53 51 50 49 48 48 46 47 47 47 45 45 44 44 44 42 40 37 37 36 35 35 35 34 33 35 34 34 36 35 40 39 39 40 36 34 36 37 39 39 40 39 38 36 36 37 37 38 36
50 51 53 54 54 55 54 54 55 54 53 52 53 52 53 51 50 48 47 46 47 48 48 47 45 42 42 42 41 38 39 38 34 34 34 34 35 34 34 34 37 35 40 40 40 39 38 39 40 38 36 37 37 37 38 38 38 37 37 36 36 36 35
46 49 51 51 54 54 53 53 53 53 53 53 53 52 52 50 49 51 48 47 47 49 50 47 37 35 34 36 39 39 37 36 34 33 33 34 33 34 35 32 35 39 40 40 39 38 37 38 38 38 39 39 39 36 36 35 35 36 35 36 36 36 35
40 44 48 49 51 52 52 52 51 52 53 53 53 52 51 49 49 49 49 47 48 49 47 37 34 34 34 34 35 37 36 35 35 33 33 32 31 32 33 34 35 36 36 36 34 31 36 37 36 36 36 36 36 37 37 37 36 35 37 36 36 37 37
37 41 45 49 50 51 51 51 51 52 53 53 52 51 50 49 49 49 48 47 49 47 42 33 33 34 34 35 34 35 32 34 33 33 33 33 32 31 32 33 34 36 35 41 35 34 33 34 35 37 37 37 37 36 35 35 36 38 36 35 36 36 36
36 39 45 49 50 50 51 51 52 52 51 52 51 51 50 50 49 49 48 48 48 47 40 34 33 33 34 34 34 35 33 35 33 31 31 32 34 34 34 34 33 33 34 35 35 34 34 33 32 32 34 35 35 37 36 35 34 35 37 37 36 35 36
37 38 41 44 49 49 49 51 51 50 51 52 52 50 50 51 50 49 48 47 46 45 39 34 33 33 33 33 32 34 35 36 34 33 34 33 33 34 34 35 36 35 35 35 35 34 32 31 32 33 33 33 34 35 36 37 37 38 38 38 37 37 37
39 40 41 43 45 47 49 50 49 50 50 51 51 50 50 49 49 48 48 47 46 44 37 33 33 33 33 34 32 33 33 36 35 34 33 33 33 33 33 34 34 34 34 34 34 33 34 32 31 32 32 33 34 35 35 35 35 35 35 36 37 37 38
40 41 42 42 44 47 48 49 50 49 50 50 50 50 50 49 48 47 47 47 47 43 34 33 33 33 33 34 33 31 34 32 32 34 34 35 33 33 33 32 34 34 34 33 33 32 33 36 32 32 32 34 34 34 34 35 34 34 35 35 34 34 34
40 40 41 43 43 46 49 49 49 50 49 48 49 49 49 48 47 46 46 45 44 42 38 33 34 33 34 34 33 32 31 31 32 32 32 33 34 33 33 39 37 33 33 34 33 32 33 35 32 33 33 33 32 32 32 33 33 33 34 35 35 34 34
41 41 42 42 45 47 48 49 49 49 49 49 49 49 47 46 46 46 45 45 45 43 41 35 33 34 34 34 35 32 30 29 30 32 32 32 33 33 32 35 39 37 35 34 33 33 33 34 33 33 32 32 31 31 32 33 32 32 33 33 34 35 36
43 43 43 44 45 47 48 48 49 48 49 48 49 48 46 45 45 45 45 43 43 43 39 37 35 33 34 35 35 35 31 29 30 32 32 30 31 32 32 32 32 34 35 34 34 33 34 34 34 34 33 31 31 31 32 32 33 32 33 32 33 33 34
44 44 45 47 46 47 47 47 48 49 50 49 48 46 45 45 44 43 43 43 40 39 38 39 39 34 34 35 34 34 32 33 33 32 31 30 29 30 28 28 29 31 33 34 34 34 34 34 34 34 33 31 32 32 32 32 32 32 31 32 32 32 32
45 46 47 47 47 46 47 48 48 50 48 46 46 46 45 44 43 42 42 42 40 40 40 42 40 35 35 35 35 35 35 34 36 33 30 28 27 28 28 28 30 33 34 33 33 33 33 33 33 33 32 31 32 32 31 31 31 30 30 30 30 30 30
45 47 48 47 45 46 47 49 49 48 47 47 46 45 45 45 44 42 39 37 37 37 39 38 35 38 35 35 35 35 35 35 34 35 32 30 30 30 30 32 32 35 32 33 32 33 32 33 32 31 31 31 32 32 32 31 30 30 30 30 30 30 30
45 47 48 47 46 47 48 49 48 48 47 46 45 43 43 41 40 40 35 33 34 32 33 33 34 33 34 33 33 34 33 33 33 34 34 32 31 32 33 33 33 32 32 32 32 32 33 33 32 32 32 32 32 33 32 31 30 31 31 31 31 30 30

ECMWFFLT1_sfc_dewp_009.txt.gz
Dewpoint
49 51 52 53 53 53 53 55 56 56 55 55 55 53 53 53 54 54 55 55 51 51 51 51 53 53 54 54 56 57 55 57 57 58 57 58 57 59 62 61 61 60 61 61 60 57 57 54 59 64 62 63 61 60 60 59 63 64 66 64 61 62 64
51 51 50 50 50 53 54 54 54 53 54 55 54 54 52 50 50 50 50 49 48 47 45 47 51 52 55 57 56 56 57 57 57 57 55 55 54 55 58 59 60 59 60 61 59 58 54 53 54 57 59 62 62 61 60 60 60 63 65 65 64 61 62
49 48 49 49 51 52 53 54 53 52 51 53 53 49 48 46 47 47 46 47 48 45 44 45 47 51 53 54 56 57 57 56 55 55 55 54 53 54 53 53 52 52 55 57 57 53 53 56 53 52 53 52 54 59 60 58 55 54 50 59 63 62 59
50 49 50 51 50 52 51 52 51 50 51 51 50 51 50 49 50 49 49 48 49 49 47 46 48 47 50 51 52 53 53 53 53 54 54 54 53 52 50 48 48 50 50 48 50 50 50 48 47 47 48 43 42 45 53 54 56 52 51 50 45 46 47
51 50 51 51 50 51 51 50 50 49 50 51 50 49 52 51 50 49 50 50 49 50 48 48 48 47 49 49 50 51 52 52 52 51 52 51 52 50 50 48 49 49 49 49 48 48 48 47 47 44 38 37 37 37 38 53 44 45 55 51 46 44 45
51 50 52 51 51 51 50 51 50 49 48 49 49 49 51 52 50 51 50 48 49 50 49 46 48 49 48 49 50 50 51 50 51 51 50 51 50 48 47 47 45 46 47 48 48 47 46 48 47 42 42 41 42 40 36 37 40 37 38 40 41 43 45
51 51 52 51 51 50 49 50 49 50 49 51 50 50 50 50 50 51 51 50 49 50 50 51 51 49 49 45 49 51 51 51 52 51 51 51 51 50 47 47 44 44 45 47 47 47 47 46 44 45 45 43 43 38 37 35 32 31 35 35 37 39 41
50 49 49 50 51 51 50 51 49 49 49 50 49 51 49 52 52 52 51 50 50 50 50 51 50 50 50 47 49 51 51 51 50 50 49 50 49 48 50 46 47 45 43 42 43 45 43 44 45 46 44 41 40 41 40 38 37 33 33 37 39 39 39
51 51 48 50 50 51 52 51 49 51 50 50 52 51 50 52 52 52 51 51 50 50 50 49 49 48 50 48 48 51 49 49 52 52 50 50 51 51 48 48 46 44 46 43 43 44 43 47 45 44 45 44 41 39 40 39 39 39 39 37 39 41 42
53 52 50 52 54 53 53 52 49 49 52 52 52 52 50 52 53 53 51 51 51 50 50 49 49 49 49 49 50 51 51 50 50 48 49 49 50 48 48 49 44 45 44 45 47 48 46 47 47 45 45 44 44 41 39 38 39 40 41 40 38 38 38
54 53 51 51 53 53 53 52 50 50 50 51 52 53 51 52 53 53 53 52 52 51 50 49 47 48 49 48 49 48 48 50 50 50 49 47 48 47 46 46 44 44 46 47 46 48 49 47 45 45 45 45 44 43 43 41 41 42 40 44 43 40 43
55 55 54 52 53 54 53 52 51 50 51 52 53 53 52 51 53 52 53 52 52 51 50 50 49 49 49 48 48 47 49 50 47 47 48 49 48 48 46 48 45 43 45 44 46 47 48 47 46 43 42 45 46 47 45 44 42 43 44 45 45 44 44
53 53 54 55 55 53 52 50 51 52 51 51 53 53 51 51 51 51 52 51 51 51 49 49 50 49 50 49 48 47 48 47 46 47 47 46 44 47 47 47 46 43 44 41 42 44 43 45 47 44 43 42 42 45 45 45 43 42 44 43 43 43 42
56 53 51 52 55 55 54 51 51 53 51 52 53 53 51 50 49 50 50 50 50 50 50 50 50 50 49 49 48 48 46 46 44 45 45 45 44 45 42 41 42 44 46 45 44 42 40 41 44 45 45 44 43 44 43 44 42 42 44 45 45 43 43
57 56 56 55 54 56 56 56 51 50 50 52 52 51 50 51 50 50 49 49 50 49 49 49 49 49 47 49 49 48 48 45 44 43 45 44 45 44 46 44 40 43 42 40 42 38 35 37 36 34 34 40 39 42 43 41 39 39 41 42 41 40 41
54 56 57 57 58 58 56 56 55 53 49 49 50 51 50 51 50 49 48 49 48 48 48 47 49 48 48 48 46 48 47 45 44 45 45 43 40 43 44 45 44 44 45 45 44 43 43 41 39 37 40 39 40 41 41 40 42 41 41 41 43 40 41
56 54 53 55 56 55 60 56 55 55 54 50 48 50 49 49 50 49 49 49 48 48 48 48 48 47 47 47 46 46 46 45 45 45 44 43 39 41 42 44 43 44 43 43 43 42 41 41 41 39 39 39 38 37 41 43 44 44 43 43 43 40 40
59 60 60 61 55 54 55 54 53 55 55 54 51 50 49 47 49 49 50 48 48 48 48 47 47 47 48 48 47 47 46 45 46 45 44 43 46 42 42 42 40 40 42 42 43 42 41 43 38 38 38 38 36 36 39 40 40 40 40 39 39 40 40
59 59 59 59 60 61 58 56 56 56 55 54 52 54 52 49 49 49 48 48 48 48 48 47 47 46 46 48 48 47 47 46 46 44 44 44 42 42 43 40 40 40 40 41 41 42 42 42 40 41 39 38 37 38 40 40 40 40 39 38 39 39 40
58 58 59 59 59 59 57 57 54 53 55 54 53 53 55 52 49 49 48 49 49 49 49 48 48 48 47 47 47 47 47 46 46 46 44 43 41 40 39 38 40 40 39 40 40 40 41 42 41 40 40 41 39 40 41 41 39 38 38 38 38 38 38
53 54 56 56 56 57 58 58 57 55 55 55 54 50 50 54 52 50 48 48 49 50 49 48 47 47 47 47 47 47 47 47 46 45 44 41 39 39 38 37 37 37 38 38 40 40 37 36 36 36 35 35 36 36 37 36 38 37 37 38 35 36 36
53 55 55 55 55 56 56 56 57 56 57 55 56 53 51 51 54 54 50 49 49 50 50 49 48 48 48 47 47 47 47 45 45 44 42 39 39 38 37 37 37 36 40 39 38 38 39 40 33 29 32 34 35 36 37 36 36 35 36 36 36 36 34
45 48 49 50 51 54 54 55 54 54 55 55 54 53 54 55 54 54 51 50 50 51 50 49 50 45 46 46 47 46 47 45 42 41 40 39 39 37 36 37 38 43 39 39 36 35 36 38 39 36 33 34 34 34 34 35 34 34 34 33 33 34 34
37 38 43 47 49 49 49 51 52 52 52 54 55 55 54 54 55 53 52 51 50 50 50 51 41 40 40 42 46 46 44 42 41 40 39 38 38 38 37 34 36 42 40 41 38 36 36 36 36 37 37 38 38 34 33 31 32 33 32 33 33 33 33
33 35 37 38 43 45 48 49 49 50 51 52 53 54 54 53 54 54 56 52 53 52 51 42 39 38 37 37 41 46 43 42 40 39 37 36 36 36 36 36 37 38 38 38 37 38 37 36 36 36 36 36 36 37 37 36 34 33 34 33 33 34 34
30 32 33 37 41 44 44 46 48 49 49 51 53 53 53 54 53 53 53 51 51 51 47 38 37 36 36 35 34 38 39 41 39 37 37 36 35 34 34 35 36 37 36 45 37 33 33 37 37 36 37 37 36 36 34 34 35 38 36 35 35 34 34
33 34 35 35 36 40 44 43 47 49 49 50 52 52 52 53 53 52 52 51 50 50 44 38 36 35 35 34 33 34 40 39 39 36 36 36 36 36 35 35 34 35 36 37 37 36 36 36 36 38 39 38 37 38 37 35 35 35 36 37 36 36 37
34 35 35 37 38 37 39 45 46 47 47 47 49 49 51 51 51 52 52 51 51 46 46 36 34 34 34 33 33 33 39 39 38 37 36 36 36 36 36 36 36 35 35 35 36 36 36 35 34 34 33 33 33 33 34 36 39 38 38 38 37 37 37
36 35 35 36 36 36 39 43 47 48 47 46 48 48 49 50 51 51 51 51 50 44 42 33 33 33 33 33 32 35 37 38 37 36 36 36 35 36 35 36 36 36 36 36 36 33 33 33 33 32 31 32 33 34 35 36 36 36 37 36 37 36 36
35 35 35 35 35 38 39 40 44 46 46 47 47 47 47 49 49 51 50 50 51 42 36 33 32 32 32 32 31 33 36 35 35 37 37 37 36 36 36 35 35 35 35 36 35 33 34 34 33 32 32 33 34 34 34 35 35 35 35 35 34 34 33
34 35 34 34 34 37 38 40 42 45 45 45 45 46 46 46 48 50 50 50 49 38 35 33 32 32 32 31 32 33 33 34 34 34 35 36 35 34 35 42 40 33 33 33 33 33 34 36 34 33 33 33 33 33 33 33 34 35 35 35 35 34 34
37 37 37 36 38 38 38 39 41 44 44 45 45 45 44 45 47 49 49 50 42 39 34 33 33 32 33 31 34 35 32 30 31 32 32 32 34 35 33 38 40 36 35 34 33 33 33 34 34 33 33 34 32 32 32 32 33 33 34 35 35 38 38
38 39 39 40 40 40 39 38 41 44 44 43 42 43 43 46 47 48 48 44 41 39 35 33 34 33 33 32 32 36 35 31 30 31 31 30 32 33 32 32 33 35 34 34 34 34 34 34 35 34 35 34 33 31 32 32 33 33 34 33 34 34 34
37 39 40 41 41 40 41 41 41 43 43 43 43 43 45 48 49 48 45 44 42 39 37 34 35 33 34 34 32 32 31 30 31 32 32 31 30 29 27 26 30 34 33 33 33 33 33 33 34 33 34 34 34 35 33 32 32 33 31 32 32 32 32
38 41 42 42 42 41 41 42 42 43 41 43 45 45 46 47 46 43 43 43 41 40 39 38 34 34 34 35 34 32 33 35 37 32 25 23 23 26 27 27 29 34 33 33 33 33 33 34 34 33 32 32 32 32 31 31 31 30 29 30 29 30 30
37 40 43 44 44 43 43 42 43 43 45 47 48 48 47 47 45 43 40 38 38 39 37 35 35 35 34 34 34 34 34 36 32 35 26 25 28 28 29 31 32 35 32 32 32 32 33 33 33 32 32 32 32 32 33 31 30 30 29 29 30 30 30
38 39 41 43 44 44 44 44 42 44 46 47 48 46 44 44 42 39 38 36 36 36 38 37 36 35 35 35 35 35 34 33 32 32 34 30 30 30 32 34 34 32 32 32 32 32 32 32 31 32 32 32 32 32 32 31 30 30 30 30 29 29 29

ECMWFFLT1_sfc_dewp_012.txt.gz
Dewpoint
57 55 58 58 60 58 60 59 59 61 58 59 60 56 57 56 57 57 56 54 56 53 53 53 55 56 57 57 58 59 58 59 60 59 59 60 59 59 62 60 60 61 61 60 60 58 56 54 57 62 63 62 63 63 61 60 61 64 65 65 62 63 65
55 55 54 54 57 58 59 60 60 56 58 58 54 54 53 53 54 54 54 53 51 50 49 50 52 54 56 58 58 58 58 58 58 59 59 58 58 59 60 60 60 60 60 60 60 59 57 54 54 55 57 62 62 61 62 62 59 58 63 64 64 63 64
54 54 53 55 57 59 58 58 58 58 58 58 56 54 54 50 54 54 53 54 55 52 51 50 52 54 55 55 57 57 57 56 57 56 55 56 54 54 55 59 58 59 59 58 58 57 57 56 54 53 54 54 54 60 62 60 57 56 55 59 65 64 63
54 55 54 55 56 58 56 57 58 57 58 56 57 57 56 54 55 55 55 53 54 54 52 50 53 52 56 56 55 55 55 55 55 54 54 54 55 53 51 52 50 51 51 50 49 50 49 50 49 48 43 37 35 43 58 59 56 53 52 54 53 52 54
54 54 54 54 54 55 55 56 57 57 55 56 58 57 57 56 56 56 57 56 56 56 55 55 54 52 52 53 55 55 54 55 55 54 53 52 52 52 52 52 53 52 50 48 50 51 50 50 49 46 42 41 40 40 40 46 47 41 48 52 52 52 48
55 55 54 55 55 55 55 55 54 54 54 54 56 56 57 57 57 56 56 55 55 55 54 51 52 52 53 52 52 53 54 53 54 53 53 52 52 51 52 51 49 49 50 52 51 50 52 53 51 48 45 42 44 43 39 39 41 40 39 44 50 50 46
55 56 54 54 55 55 56 57 54 54 53 54 55 56 57 57 57 58 57 56 56 56 56 56 56 54 54 50 53 54 53 54 54 54 53 53 53 52 52 50 51 48 50 51 50 52 49 49 48 48 46 46 45 41 39 38 39 36 37 37 41 41 43
56 57 55 56 56 56 56 56 56 55 55 54 54 55 55 58 57 57 56 56 56 56 55 55 56 55 54 51 53 55 54 53 52 52 53 53 52 50 51 52 54 49 50 47 49 49 46 49 48 48 46 45 44 45 44 39 38 38 38 39 38 39 43
55 56 56 56 57 59 57 56 58 57 56 57 55 55 55 56 56 56 55 56 55 55 56 55 55 54 55 53 53 54 53 54 55 54 53 53 54 52 51 52 50 49 49 48 51 50 49 51 50 49 49 47 44 42 43 43 43 41 40 40 40 40 39
55 55 56 57 57 59 59 56 59 57 58 57 56 55 56 58 56 55 55 55 56 56 56 55 54 55 55 54 54 54 54 54 53 51 53 52 52 52 52 51 52 51 49 54 52 51 51 52 51 50 50 48 48 44 43 43 44 44 41 41 41 42 43
56 57 57 58 56 57 60 56 59 57 58 57 55 55 57 57 57 56 56 55 56 55 56 55 53 53 55 54 53 54 53 54 53 53 52 51 52 52 51 50 49 51 50 51 53 54 56 54 52 52 50 49 48 46 45 44 44 45 44 44 42 41 42
58 58 57 59 57 55 58 56 58 58 58 57 55 55 56 56 57 56 56 55 55 55 55 55 54 53 53 53 54 53 53 54 52 53 52 52 53 53 50 51 49 50 49 49 49 52 54 54 51 47 49 49 47 49 47 46 44 46 47 45 45 43 43
57 58 61 61 57 56 56 57 57 57 59 56 56 55 53 54 55 54 55 54 54 54 53 53 53 53 54 52 52 51 51 53 50 50 49 50 47 52 50 49 50 49 50 47 47 50 50 50 49 49 48 49 47 48 47 46 44 43 47 47 46 44 41
59 57 61 58 61 59 59 58 59 58 57 56 57 55 53 53 53 53 53 53 52 52 51 53 53 53 53 52 52 52 50 49 48 49 49 50 49 49 47 46 46 49 48 48 48 46 44 45 48 48 47 47 47 47 45 46 44 42 44 47 45 42 42
61 61 59 60 59 59 61 61 61 60 57 56 56 55 52 53 53 53 52 52 52 50 51 51 51 53 51 52 52 53 49 48 48 47 49 46 48 50 50 47 47 48 47 44 48 41 39 39 36 35 41 46 41 43 45 43 42 42 41 44 45 44 42
62 62 61 60 61 61 61 62 61 60 60 59 57 56 54 53 53 52 51 52 51 51 50 50 51 52 51 51 50 52 51 50 49 50 48 49 46 46 48 49 48 49 50 48 48 48 48 45 41 38 42 43 43 44 41 41 44 43 42 43 45 42 43
59 61 60 60 61 60 61 61 59 60 58 59 58 57 55 53 52 52 51 51 51 51 50 51 51 50 49 50 49 49 49 50 49 49 48 46 44 47 47 48 47 48 48 47 47 46 45 45 47 44 41 40 41 41 44 45 46 43 43 42 44 40 40
58 61 61 61 60 59 59 59 59 57 58 57 57 55 55 53 52 51 52 50 50 50 50 50 49 50 50 51 50 49 48 47 49 49 49 49 50 47 47 47 46 46 47 46 46 46 46 47 41 43 42 41 40 41 43 43 42 40 39 38 39 40 41
59 60 61 60 60 59 60 59 59 60 59 58 57 56 54 53 51 51 51 51 50 50 50 50 49 49 48 50 50 50 49 49 49 48 49 49 47 47 46 46 47 45 44 46 46 46 46 45 44 44 42 41 39 40 43 43 43 43 42 40 40 39 39
60 60 60 60 60 59 58 58 59 59 59 58 59 58 57 55 54 50 49 50 50 50 50 50 50 50 48 49 49 49 50 50 50 50 49 48 48 47 47 46 45 46 44 44 45 44 45 45 45 42 42 40 35 36 37 37 37 36 38 38 38 39 38
58 59 60 60 59 58 57 58 58 59 59 58 58 58 58 58 58 57 56 52 51 51 51 51 50 50 49 49 50 50 50 50 49 50 50 48 48 47 46 45 45 44 45 44 44 39 38 40 39 37 37 37 38 38 38 38 37 36 36 36 37 37 38
55 55 57 57 57 58 57 57 57 57 57 57 57 57 58 58 56 55 55 56 56 55 54 53 52 50 49 49 50 50 50 48 49 48 47 47 46 45 44 44 43 43 46 39 41 40 41 39 37 35 37 38 38 38 36 35 35 34 33 34 34 35 34
52 53 54 56 56 57 58 58 58 57 56 56 56 56 57 57 56 55 55 55 57 56 56 57 54 47 47 49 49 48 51 50 48 49 46 46 45 44 44 44 46 47 42 41 38 34 33 35 37 39 36 36 37 36 36 35 33 33 33 32 32 32 33
51 48 52 53 54 53 53 55 56 55 56 56 57 57 57 56 55 55 55 56 55 57 57 55 49 45 43 44 49 51 50 50 49 48 46 45 43 43 44 40 44 41 40 39 38 34 33 35 36 36 36 38 40 39 35 36 34 35 34 34 34 33 33
45 48 47 48 49 52 54 54 55 56 56 57 57 57 58 57 56 56 57 56 56 55 56 51 43 42 42 42 46 50 50 48 48 47 45 44 43 42 41 42 43 44 40 38 37 37 36 35 34 34 35 35 34 35 37 35 34 33 34 34 34 33 33
46 47 46 47 50 51 50 51 51 54 54 57 57 56 56 56 57 58 57 56 55 55 53 40 39 40 41 41 43 45 45 46 44 45 44 44 42 41 41 43 43 44 40 45 44 40 39 36 35 35 35 36 36 35 34 34 35 36 34 34 34 34 35
45 47 48 47 48 47 46 50 53 53 54 54 55 54 55 55 56 56 56 55 55 54 51 40 38 38 38 38 39 42 45 45 44 43 43 42 44 42 42 42 40 42 42 43 39 39 38 38 39 37 36 36 36 37 36 35 34 35 36 35 34 34 35
45 43 46 47 47 46 47 49 50 51 53 53 53 54 54 53 54 54 55 54 52 50 49 39 38 37 36 35 35 39 47 46 43 44 44 45 45 43 41 43 41 41 40 40 42 41 41 39 39 40 39 37 37 36 36 36 37 38 37 36 35 35 36
47 46 46 46 46 46 47 49 49 52 52 52 52 52 52 53 53 53 54 54 52 49 47 37 36 35 35 34 36 41 45 45 42 45 43 43 43 42 41 41 41 41 40 40 38 34 36 39 38 37 37 36 35 35 36 37 37 36 37 38 38 38 38
46 46 45 46 45 47 47 49 49 49 49 51 51 51 51 52 52 53 53 53 51 47 41 37 35 34 33 33 36 39 44 41 41 43 43 43 42 41 43 41 40 40 41 39 38 33 32 34 38 37 35 34 35 34 35 37 37 36 36 36 36 36 35
46 45 45 44 45 46 47 47 46 47 47 48 49 50 51 50 51 51 51 52 48 44 40 36 34 33 32 33 36 39 40 42 41 39 40 42 43 40 40 45 43 38 40 39 34 34 34 37 37 37 36 35 34 33 34 36 37 37 36 35 35 35 36
46 46 45 45 48 47 47 48 46 47 46 48 49 49 46 48 48 49 51 48 44 42 37 35 34 32 31 32 36 42 42 39 42 40 40 39 39 39 38 43 41 39 38 36 34 34 34 36 36 36 36 35 34 33 34 35 35 35 34 34 34 34 34
47 43 41 45 49 48 49 47 46 45 45 43 45 47 47 45 48 48 45 43 43 39 35 34 35 32 32 32 35 41 39 37 36 36 38 37 37 38 39 35 37 35 34 33 33 33 33 33 33 33 34 33 33 33 35 34 34 33 32 32 32 32 33
45 47 47 47 48 48 47 46 47 46 45 45 46 48 48 50 47 45 44 43 40 37 35 33 34 32 32 32 32 38 37 36 35 34 35 32 32 33 31 32 34 34 33 33 32 33 32 32 32 34 33 32 32 34 33 31 31 33 31 31 31 31 31
45 46 48 49 49 48 48 46 44 45 43 43 45 48 49 48 46 45 44 41 39 36 36 36 33 34 33 33 32 32 35 37 31 32 30 26 26 30 30 33 34 34 33 33 32 32 32 33 33 35 33 33 33 33 33 33 32 31 30 30 29 29 29
44 45 45 44 45 45 47 47 46 45 45 45 47 50 48 47 44 42 40 40 39 37 35 34 34 34 34 34 33 33 32 35 30 33 31 27 31 31 32 35 35 35 32 32 32 32 32 33 34 34 33 33 33 33 33 32 32 31 30 29 30 30 30
38 41 41 42 42 44 45 46 46 45 44 45 48 49 47 45 43 40 40 39 37 35 34 33 34 34 34 34 33 34 32 32 32 36 35 33 31 33 34 36 34 34 33 33 32 32 32 33 32 32 32 32 32 33 33 32 32 31 31 30 30 30 30

ECMWFFLT1_sfc_dewp_015.txt.gz
Dewpoint
52 51 52 53 54 55 54 54 54 55 53 52 51 51 51 51 51 49 48 50 52 53 55 55 56 57 57 57 58 58 59 58 58 58 57 58 56 56 58 57 59 59 58 59 58 55 53 51 53 57 60 62 63 62 62 62 62 62 62 64 64 63 63
52 53 54 55 55 55 54 55 53 52 52 51 49 49 49 50 53 51 50 48 49 51 53 53 54 55 55 55 55 55 54 54 56 56 57 56 56 57 57 57 58 58 59 58 59 57 53 51 51 52 54 59 61 61 61 61 60 58 56 59 63 63 61
52 52 52 53 54 55 54 54 53 52 50 50 50 50 51 52 51 50 49 51 51 52 52 52 52 52 52 52 54 54 53 52 53 53 54 54 52 53 55 57 56 57 56 55 56 56 55 53 50 52 49 45 43 51 59 60 60 57 55 56 59 61 62
50 51 52 53 54 52 52 51 51 51 50 51 51 51 50 51 52 53 50 51 51 54 52 50 51 52 52 52 53 53 52 51 51 50 50 51 50 49 49 50 50 50 49 48 47 50 48 46 46 46 45 42 41 42 46 59 59 57 54 55 56 57 57
50 51 51 52 53 51 52 52 52 50 50 52 51 51 50 51 52 52 53 52 51 50 51 51 51 52 53 52 52 52 51 51 51 50 49 48 48 48 47 49 49 49 48 48 49 49 48 46 46 45 45 43 43 42 42 44 45 54 53 51 52 52 52
51 51 51 52 52 51 52 52 50 50 51 50 51 49 49 51 53 50 49 49 49 50 49 49 51 51 51 51 51 51 51 50 50 49 48 48 48 48 47 48 47 48 49 48 48 47 48 50 48 44 45 43 43 44 42 42 41 38 41 41 43 48 49
52 51 51 52 52 52 53 51 51 50 50 51 51 49 51 52 54 53 53 52 52 52 53 52 51 51 52 52 51 51 51 51 51 50 49 49 48 48 49 46 46 47 46 47 48 47 47 47 46 44 43 45 45 43 43 41 40 38 40 40 40 44 45
52 52 52 53 52 52 52 51 51 51 51 52 51 52 53 53 52 51 51 51 51 50 51 51 52 52 52 52 52 52 51 50 50 51 49 48 48 47 47 48 47 46 46 47 48 48 48 48 48 47 46 43 43 45 44 42 43 42 42 41 41 42 43
54 53 53 53 52 53 53 52 51 51 52 52 52 52 54 52 51 51 52 52 51 51 51 51 50 50 50 50 50 50 49 52 50 50 49 49 48 48 47 48 47 45 46 49 48 49 48 49 48 48 47 46 42 41 44 44 44 43 44 42 43 43 43
53 52 53 53 53 53 53 53 51 52 52 52 52 52 54 52 52 51 51 51 51 51 50 52 51 51 51 51 50 50 50 51 51 50 50 49 49 49 49 47 48 45 47 49 47 49 50 49 49 48 47 46 46 43 42 41 43 43 44 44 42 43 43
53 53 53 53 55 53 52 53 53 53 52 52 51 52 54 52 52 55 52 51 51 51 51 51 50 52 52 51 51 51 51 49 49 50 50 49 47 48 48 47 48 46 48 48 47 49 50 48 49 49 48 46 46 44 44 42 43 45 44 44 45 43 42
54 54 54 52 54 54 51 53 53 53 53 52 51 52 54 52 52 52 52 51 51 51 51 50 50 50 51 50 50 50 50 50 50 49 48 49 50 48 48 46 47 47 46 45 46 49 50 50 45 46 46 47 46 44 42 44 41 45 46 43 45 43 41
54 52 55 52 53 54 51 53 54 54 53 52 50 51 54 53 52 52 52 51 51 51 50 51 50 49 50 49 50 49 49 51 50 48 47 48 49 48 46 47 47 46 45 46 46 46 45 47 46 45 46 45 45 46 45 43 41 41 46 44 43 42 42
55 55 56 53 52 54 52 53 53 54 54 52 51 50 53 53 53 52 53 52 51 51 50 50 50 48 50 49 50 48 49 50 48 48 47 46 47 48 48 47 47 47 46 46 44 44 43 44 46 48 47 45 45 46 44 42 42 42 43 46 44 43 43
56 56 57 56 56 56 54 53 54 54 53 53 51 50 51 53 53 52 53 52 52 51 51 51 50 49 50 48 48 50 49 49 48 48 47 46 43 49 45 44 47 47 46 44 45 44 43 43 41 38 41 46 44 43 46 42 40 40 39 44 43 44 44
57 56 56 57 58 56 56 56 56 56 54 54 52 51 51 53 53 52 52 53 52 51 51 51 50 50 49 49 47 49 49 47 47 47 46 45 45 46 45 46 45 46 48 44 45 45 47 44 42 41 41 42 41 41 42 42 42 41 41 42 45 42 42
57 57 56 56 57 58 57 57 57 56 56 55 55 55 53 52 52 52 52 52 52 51 51 50 50 50 50 50 48 50 47 46 47 48 46 46 46 46 45 46 46 47 46 44 44 45 44 45 43 42 41 41 41 41 43 42 41 40 40 39 40 38 40
56 57 57 56 57 58 57 57 56 55 55 55 54 54 55 55 53 52 52 51 52 52 51 50 50 50 50 50 49 49 48 47 48 48 45 45 48 46 46 45 46 46 45 44 44 43 45 44 43 43 41 41 40 41 41 41 40 40 40 38 40 41 41
56 56 57 57 58 58 58 57 56 56 55 55 55 55 55 55 55 55 55 55 54 52 51 51 50 50 50 50 50 49 48 48 48 47 46 47 47 46 46 44 45 45 44 43 43 44 43 43 43 39 38 37 35 37 38 37 38 38 37 37 37 38 39
56 56 58 58 57 56 55 56 56 56 56 56 54 55 56 56 56 56 56 56 55 54 53 52 51 50 50 49 50 49 48 47 47 47 47 47 46 44 45 45 45 44 44 44 44 43 41 40 40 37 39 37 36 37 37 37 36 34 34 34 35 36 36
56 57 57 56 57 56 55 56 57 57 56 55 55 54 54 55 55 56 56 56 56 55 55 56 56 53 50 49 49 49 48 47 47 47 47 46 46 45 45 45 44 44 43 44 41 39 38 35 37 34 36 38 39 37 36 36 33 32 31 32 32 32 33
55 55 56 57 56 56 56 54 55 55 55 55 55 54 55 55 55 55 56 56 56 56 55 55 55 55 53 49 49 49 49 48 48 47 47 46 45 44 43 43 43 44 47 45 42 41 39 39 35 28 33 36 38 36 35 35 35 32 32 32 32 33 33
50 50 52 54 56 56 55 54 54 54 55 55 54 54 53 54 54 54 54 55 55 55 55 55 54 51 51 51 50 49 49 48 48 47 46 44 43 42 42 41 48 49 45 42 39 37 36 38 41 37 35 34 35 35 33 32 32 33 34 33 33 33 33
49 50 49 52 54 55 56 55 55 55 55 55 55 55 54 54 54 54 54 54 54 55 55 55 49 46 46 47 50 49 49 48 48 47 45 43 41 41 41 43 45 44 42 41 38 37 36 36 35 36 37 38 40 35 34 33 33 33 33 34 34 33 33
46 48 49 51 52 52 53 54 55 55 55 55 55 55 55 55 54 54 53 53 54 54 54 51 46 46 45 44 46 50 49 48 48 46 44 43 42 41 40 41 42 42 37 35 34 34 36 36 35 35 34 35 36 38 38 35 34 33 33 32 33 33 34
36 38 40 42 43 43 45 45 45 49 52 54 54 55 54 54 54 54 53 53 53 53 53 49 45 45 45 43 42 47 49 48 46 45 44 43 43 41 40 41 42 42 40 44 43 36 35 36 37 36 36 36 36 35 34 34 36 36 33 33 33 32 33
41 41 43 43 43 41 40 42 47 49 49 50 50 52 53 53 53 53 54 54 54 52 51 48 43 43 43 42 41 45 47 45 44 44 43 42 42 41 41 40 41 43 41 42 41 40 39 37 36 36 35 35 34 36 37 36 35 35 37 34 32 32 33
39 39 40 41 41 41 42 44 44 45 47 48 48 49 49 49 51 52 53 53 52 51 52 47 40 39 40 40 41 43 43 45 43 44 45 43 42 41 40 41 39 40 42 43 42 40 39 38 38 38 37 36 35 35 36 37 37 37 37 36 35 34 34
38 38 38 38 37 37 40 41 41 42 44 46 46 46 46 48 48 48 51 51 49 48 47 39 38 38 38 38 40 44 44 42 43 45 42 43 42 42 42 41 40 39 40 39 40 38 39 39 38 38 38 37 37 37 36 39 38 39 39 38 38 37 37
38 36 37 37 37 39 40 39 39 42 39 41 44 45 45 45 47 49 49 49 48 47 42 38 36 37 38 39 40 41 42 41 43 42 41 42 41 42 42 41 39 39 40 39 36 34 36 37 35 35 35 35 36 35 35 37 38 37 37 36 36 36 36
39 37 38 36 37 39 40 41 39 40 38 39 41 43 46 45 46 47 48 49 48 46 41 37 36 36 38 39 40 41 40 40 39 39 40 42 42 42 42 46 44 38 36 36 34 34 36 38 36 35 34 34 34 34 34 36 36 36 36 35 34 34 34
39 39 38 38 39 39 40 39 39 41 41 41 41 43 43 44 43 44 45 48 48 43 37 36 35 36 37 38 41 40 42 41 41 39 40 40 41 39 36 41 41 38 35 35 33 33 33 34 32 32 32 31 31 30 31 32 33 32 32 31 31 31 32
38 37 37 38 40 41 42 41 39 39 40 40 40 41 42 43 43 41 42 43 42 38 34 33 35 36 37 37 39 40 37 37 35 33 31 30 32 34 35 34 36 34 33 33 32 33 33 33 31 31 31 29 29 29 31 32 33 32 31 31 31 31 32
39 40 38 38 41 42 42 40 40 41 41 41 40 40 43 42 42 40 39 39 37 35 33 31 33 34 35 36 37 38 35 31 30 30 28 28 28 32 33 34 34 34 33 33 33 32 32 32 32 32 30 29 30 33 33 31 32 34 32 32 32 32 32
38 42 42 41 41 41 42 42 42 41 40 40 40 39 42 41 41 39 38 37 35 34 35 33 29 32 32 33 35 36 33 29 30 29 29 29 30 33 33 32 33 34 33 33 32 32 32 32 32 34 32 33 33 33 33 33 32 32 31 31 31 31 31
37 42 42 41 40 40 41 41 41 41 41 41 40 43 42 41 39 38 36 34 33 32 32 33 33 31 32 32 32 34 34 31 34 36 33 32 32 33 35 33 35 34 32 32 32 32 32 33 33 32 33 33 33 33 34 32 32 31 31 31 31 30 30
39 39 39 40 40 40 40 41 42 42 41 40 41 43 41 39 38 36 34 33 32 30 30 30 33 33 32 32 33 33 33 33 34 34 33 32 35 36 35 35 36 33 33 32 32 32 33 33 32 33 33 33 33 33 32 32 31 31 31 31 31 31 30

ECMWFFLT1_sfc_dewp_021.txt.gz
Dewpoint
51 51 52 52 52 53 51 50 49 48 49 50 51 52 53 54 54 54 55 56 56 56 56 54 54 54 56 56 56 56 56 56 57 58 58 58 56 56 58 56 57 58 56 56 54 51 48 48 50 53 54 53 55 57 58 58 59 59 59 60 62 63 62
51 52 53 53 52 51 49 48 48 48 49 49 50 51 51 53 55 53 54 54 54 54 56 54 53 54 53 54 54 54 55 55 56 55 58 57 55 56 57 57 57 56 55 54 55 52 49 47 48 48 48 48 50 48 52 51 52 56 58 58 59 59 58
52 52 52 51 50 49 48 47 47 48 48 48 49 49 50 51 52 53 53 53 53 53 53 52 52 52 52 52 51 52 52 52 51 53 55 53 55 56 57 57 56 54 48 47 47 51 50 48 47 44 45 42 42 44 47 45 44 47 54 57 54 49 48
53 52 51 50 49 48 47 46 47 47 48 48 49 49 50 51 52 53 52 52 53 55 53 51 51 51 50 50 50 50 49 49 49 49 49 50 50 51 52 54 52 51 46 45 44 46 46 42 43 42 44 45 42 42 43 46 45 43 44 46 46 44 44
53 52 52 51 50 48 47 46 47 47 46 47 47 48 48 50 51 51 52 51 52 51 51 51 50 50 50 50 49 49 48 48 48 48 47 47 47 47 47 47 47 47 47 46 46 46 45 44 43 41 41 43 41 42 43 46 45 42 43 43 42 42 42
53 52 52 52 50 49 47 46 46 46 46 46 46 48 47 48 50 49 49 50 50 51 50 50 49 49 49 49 49 48 48 47 46 46 46 45 46 45 45 45 46 46 46 46 47 46 45 44 42 40 41 43 41 42 44 43 43 43 42 41 41 41 42
53 52 52 52 51 49 48 47 47 47 46 45 46 47 48 48 48 49 50 49 49 49 49 49 49 49 49 49 49 48 48 47 47 47 46 46 45 44 45 45 45 46 45 46 45 46 45 44 43 41 41 41 42 42 43 43 44 41 42 43 41 40 42
53 53 53 53 51 50 48 47 47 47 46 45 47 47 50 47 48 48 49 49 49 49 50 50 51 50 50 50 49 49 48 47 47 47 45 44 45 44 44 45 46 45 44 45 46 45 45 45 44 42 40 37 38 39 42 42 43 43 43 43 43 41 42
54 53 53 53 51 50 49 48 48 47 47 47 46 49 49 48 48 49 48 48 48 49 49 49 49 49 48 48 47 48 48 48 46 46 45 45 44 44 44 43 45 44 44 45 45 45 45 46 46 45 43 40 37 36 39 40 41 41 44 42 43 42 41
53 53 53 52 52 51 49 49 49 49 48 48 48 50 48 47 48 48 48 48 48 48 48 49 49 48 47 48 48 47 47 47 48 46 45 45 44 44 44 44 45 45 45 45 45 47 46 45 45 44 43 42 41 39 37 37 38 40 43 44 39 40 42
53 53 53 52 52 51 49 49 48 49 49 49 50 51 49 47 48 52 47 47 47 48 49 48 48 48 48 47 47 47 47 47 47 46 46 45 44 46 46 44 43 43 44 45 46 47 47 45 44 45 44 44 43 40 39 37 38 40 41 42 42 40 42
53 53 54 53 53 52 51 50 50 50 49 49 50 50 48 47 48 48 47 47 47 48 48 48 48 48 48 48 48 48 46 46 46 45 45 46 45 45 44 43 43 43 44 43 43 43 44 45 45 44 44 44 44 43 42 39 37 40 43 40 41 43 42
53 53 53 52 52 52 51 51 50 49 50 50 49 49 48 47 48 47 47 47 47 47 47 48 48 48 48 49 48 48 46 46 45 44 45 46 46 45 44 43 43 42 42 43 43 43 43 43 45 45 44 43 43 43 43 40 38 39 42 42 42 42 41
54 54 54 53 52 52 53 52 51 50 50 50 50 50 49 48 48 48 47 48 47 47 47 47 47 47 47 47 46 47 47 46 45 44 46 45 45 44 44 44 44 44 43 43 43 44 43 41 41 42 42 41 41 42 42 40 37 38 40 43 43 41 40
55 54 54 54 54 54 53 52 52 51 50 50 50 51 50 49 49 48 47 47 47 47 47 47 47 47 47 47 45 47 47 46 45 45 44 44 44 45 44 44 44 43 43 43 43 43 42 40 39 40 41 40 40 40 41 38 38 38 36 39 39 38 36
55 55 55 55 54 54 54 53 53 52 51 50 50 51 51 49 50 49 48 48 47 47 47 47 47 47 47 47 46 46 47 47 46 45 44 44 44 44 43 44 43 43 44 43 43 42 42 41 40 40 40 40 39 39 40 38 35 35 36 35 39 35 34
54 55 54 55 54 55 54 54 55 53 52 51 50 50 51 50 50 50 49 49 49 48 48 48 48 47 48 47 47 47 46 46 46 46 45 44 44 44 43 43 44 43 44 42 42 42 42 42 40 38 38 39 38 38 39 38 37 35 36 30 33 36 33
54 54 55 55 55 55 55 55 55 54 54 53 52 52 52 51 51 50 50 49 49 49 49 48 48 48 48 48 48 47 47 46 46 46 46 45 47 44 43 42 44 44 43 42 42 42 41 39 38 37 36 38 37 39 39 37 36 34 30 27 31 36 35
54 54 54 54 55 55 55 55 55 55 55 54 53 53 52 51 52 51 50 50 50 49 49 49 49 48 48 48 48 47 48 47 47 46 46 46 46 45 44 43 44 45 43 42 42 42 41 38 36 36 35 36 37 37 35 35 34 33 31 30 31 31 33
52 52 53 53 54 55 55 55 55 54 54 54 53 53 53 52 52 52 52 53 52 51 50 50 49 49 49 49 48 48 47 48 47 46 47 47 46 45 44 44 45 45 43 43 42 42 40 38 37 36 37 37 35 35 34 33 32 32 32 31 32 32 32
51 51 52 53 53 53 53 53 53 53 54 54 54 54 54 53 53 54 54 54 53 53 52 52 51 50 50 49 49 49 48 48 47 47 47 47 46 46 45 45 45 45 43 43 42 41 39 37 37 36 38 36 35 33 33 34 33 32 32 32 30 30 32
51 52 53 54 54 53 54 54 53 54 54 53 53 53 53 53 52 53 53 53 54 54 54 53 53 52 51 50 49 49 49 48 48 47 46 46 46 46 46 45 45 45 46 47 45 44 42 39 34 31 34 37 34 33 34 34 34 32 33 32 31 32 32
52 52 53 53 54 54 54 52 52 53 53 53 54 52 52 53 53 53 53 53 53 53 53 53 52 49 49 51 50 50 50 49 49 48 47 46 46 45 45 45 46 49 47 47 44 41 39 39 39 35 31 34 34 32 30 31 32 33 32 30 31 31 31
51 53 53 53 53 53 51 51 53 53 53 52 50 52 53 53 53 53 53 53 53 52 53 53 49 46 45 46 50 50 50 49 49 49 48 47 46 45 44 44 44 47 47 46 43 39 38 37 37 38 38 37 37 32 31 30 30 32 33 32 31 31 30
51 53 53 53 53 52 52 52 52 52 51 50 47 51 51 52 52 51 51 51 52 52 52 50 47 46 45 44 46 50 50 50 49 49 48 47 47 45 44 43 44 46 43 42 39 37 36 36 36 36 36 36 37 37 37 34 34 33 32 31 31 31 30
50 49 50 51 50 49 51 51 50 49 50 51 50 50 52 50 50 50 51 51 51 51 51 48 46 45 44 44 43 46 50 49 49 49 48 47 46 45 43 43 44 43 41 44 41 32 31 33 36 36 37 37 37 36 35 35 36 36 33 32 31 31 31
45 45 45 44 45 46 47 49 48 48 48 48 50 50 49 50 50 50 50 50 50 49 49 48 45 44 44 43 42 43 49 49 48 48 48 47 46 44 43 42 42 41 41 41 36 34 34 33 35 35 34 33 34 37 37 36 36 35 37 34 31 31 32
42 41 41 41 40 40 42 40 41 41 43 45 47 47 46 47 47 47 48 48 47 47 49 47 43 42 41 41 41 42 45 47 47 46 46 46 44 43 42 43 41 41 41 41 41 38 36 36 37 37 36 36 35 35 35 35 35 35 36 34 33 33 33
39 39 38 37 38 38 37 37 38 40 39 39 39 40 40 42 44 44 44 43 44 46 45 43 40 40 40 41 41 43 44 44 43 43 43 42 42 43 42 43 44 44 43 43 40 39 39 39 37 37 35 34 34 34 35 38 38 38 37 34 34 33 34
37 36 36 36 36 36 36 35 36 38 36 36 37 38 38 40 41 42 42 44 44 45 43 39 38 40 40 40 42 42 42 42 42 41 40 41 42 42 43 43 43 41 38 37 37 36 37 38 36 34 33 31 32 31 31 33 36 36 35 35 34 35 35
36 36 36 34 35 35 35 35 35 37 34 35 36 37 38 38 38 39 41 42 43 43 42 38 37 38 38 39 42 43 42 42 40 40 38 37 38 40 42 46 41 36 35 36 35 35 35 35 33 32 31 30 29 29 29 30 32 33 34 34 34 34 34
36 36 35 35 36 36 36 35 35 37 36 36 37 37 39 38 36 37 37 40 46 43 37 36 37 37 38 39 42 42 41 40 39 37 36 35 35 36 38 40 39 36 35 35 34 34 34 34 31 31 30 29 28 26 27 27 29 29 30 31 30 32 32
38 37 36 36 36 36 37 36 36 36 36 37 37 37 37 36 36 35 35 35 36 35 34 34 37 38 39 39 40 41 40 39 38 36 34 33 33 32 33 33 35 33 33 33 33 33 34 33 30 30 29 27 27 26 27 29 33 30 29 30 29 29 31
39 39 38 38 38 38 38 36 36 35 36 36 35 36 36 35 35 33 33 33 32 33 36 34 36 37 38 39 39 39 38 38 37 36 35 34 32 32 31 32 33 34 33 33 33 33 34 34 33 31 29 28 28 31 31 28 31 34 30 31 30 30 30
38 39 39 39 37 37 38 37 36 36 36 36 35 35 34 34 33 31 31 31 31 31 36 39 35 36 36 37 36 37 37 36 37 35 33 32 31 31 31 31 32 34 33 33 33 33 34 34 34 35 31 32 32 33 31 33 31 30 29 29 28 29 29
38 40 40 40 38 37 37 38 37 36 36 36 35 35 34 33 32 30 29 29 29 30 31 34 37 34 35 35 35 34 34 33 34 36 33 33 31 31 32 32 35 35 33 33 33 33 33 33 35 33 33 33 33 33 33 31 31 29 29 29 30 29 28
38 38 39 39 37 37 36 36 36 37 35 36 35 35 33 33 32 30 29 28 29 29 30 30 35 35 34 34 35 35 35 35 35 35 34 32 32 32 31 31 34 34 33 33 33 33 33 34 32 32 33 33 33 34 31 30 28 29 29 28 28 28 28

ECMWFFLT1_sfc_dewp_024.txt.gz
Dewpoint
51 51 51 52 52 52 49 49 49 49 50 51 53 54 55 56 56 57 58 58 58 57 59 58 58 58 58 58 58 57 57 58 58 58 58 59 57 57 59 58 58 57 57 56 54 54 52 52 53 55 56 53 52 52 53 53 57 60 60 59 56 54 56
52 53 53 53 51 50 48 48 48 49 50 50 51 52 53 56 58 56 56 56 56 56 57 55 55 55 56 56 56 56 56 56 57 58 59 58 56 57 58 58 57 55 54 54 54 53 52 50 50 49 48 51 49 48 48 48 50 51 51 51 50 46 49
53 52 51 50 49 48 47 47 48 48 49 50 50 51 52 54 54 55 54 54 54 55 55 53 53 53 53 53 53 54 54 54 54 57 58 57 57 58 58 58 57 53 50 50 52 52 49 51 50 43 47 44 43 45 48 47 45 46 45 47 47 45 46
52 52 50 49 48 47 47 47 47 48 48 49 51 51 52 53 54 55 53 53 55 56 53 51 52 51 51 51 50 50 50 51 52 53 54 55 56 56 56 57 55 51 49 47 47 49 48 45 44 43 45 44 43 44 46 47 46 43 42 45 45 45 47
52 52 51 50 48 47 47 47 47 47 47 48 49 50 50 52 53 52 53 52 52 51 51 51 50 50 50 50 49 49 49 49 50 50 49 49 48 48 48 48 48 49 48 48 48 47 46 45 45 43 43 44 40 42 43 49 45 43 42 42 42 44 45
53 52 52 51 49 48 47 47 46 46 46 47 48 48 49 49 51 50 50 51 51 51 51 50 50 50 49 49 48 48 48 47 47 47 47 47 47 47 47 47 47 47 48 48 48 46 46 45 44 43 43 43 44 44 44 45 45 45 43 41 41 42 43
53 53 53 52 51 49 48 47 47 46 46 47 47 48 48 50 50 51 50 50 50 50 50 50 50 50 49 48 48 48 47 47 47 46 46 47 47 47 47 46 47 47 47 47 47 47 46 45 44 44 44 42 43 42 43 43 44 41 42 43 42 41 43
56 54 55 53 51 49 48 47 47 47 46 46 47 49 51 49 50 49 49 49 49 50 51 51 51 50 50 49 49 49 48 47 47 47 46 46 46 46 46 47 47 47 47 47 47 47 46 46 45 44 42 38 39 42 42 41 43 43 43 45 42 40 42
55 54 54 53 52 49 48 48 48 47 47 47 48 49 49 49 49 49 49 49 49 49 50 49 49 49 49 48 48 48 48 49 46 46 46 46 46 46 46 46 47 46 47 47 47 47 47 47 47 45 43 39 35 34 41 41 42 42 44 41 43 42 40
54 53 52 53 51 50 49 49 49 48 48 48 50 51 49 48 49 49 48 48 49 49 49 49 48 48 48 48 47 47 47 47 47 45 46 45 45 46 46 47 47 47 48 48 48 48 48 47 46 46 45 44 42 40 41 40 41 44 42 43 38 40 40
53 53 53 52 52 51 50 50 49 49 49 50 51 52 49 49 49 52 48 48 48 49 49 48 48 48 48 48 47 48 48 47 47 47 47 46 46 47 47 46 46 46 47 48 48 49 48 47 47 46 46 45 44 42 43 41 41 44 43 43 42 37 38
53 54 54 53 52 52 51 50 49 49 49 50 52 50 48 48 49 48 48 48 48 49 48 48 49 48 48 48 50 48 48 47 46 46 47 47 47 46 45 44 45 44 45 45 45 46 47 47 46 46 46 46 46 45 44 43 39 43 45 43 43 42 38
53 53 54 53 52 52 51 50 50 50 50 51 49 49 48 48 49 48 48 48 48 48 49 49 48 48 48 49 49 48 47 46 46 47 47 47 45 45 44 44 44 44 45 44 44 45 46 47 47 45 44 45 45 45 45 43 41 39 45 44 43 39 35
53 54 54 53 53 53 52 51 50 50 51 50 50 50 49 48 48 49 48 50 48 48 48 48 48 48 49 48 48 48 47 46 45 46 48 47 46 45 45 44 44 45 45 44 44 44 43 43 44 44 44 43 42 44 43 43 41 40 43 45 43 38 36
53 53 54 53 53 53 52 52 51 51 50 50 50 50 49 49 49 49 48 48 48 48 48 48 48 48 48 48 47 48 47 46 46 46 46 46 45 46 45 45 45 44 44 43 44 40 41 41 40 40 41 41 41 41 44 42 42 41 37 43 39 38 34
53 53 54 54 53 53 53 53 52 51 50 50 51 50 50 49 49 49 49 48 48 48 48 48 48 48 48 48 47 48 48 47 46 46 46 46 45 45 45 46 44 45 45 44 44 43 43 41 40 39 41 40 41 41 40 39 40 38 34 33 40 33 35
53 53 53 54 53 53 53 53 53 52 51 51 50 51 51 51 50 49 49 49 49 49 48 48 48 48 48 48 48 48 48 48 47 46 46 45 45 45 45 45 45 45 45 44 43 43 43 42 41 40 40 41 41 40 41 39 38 39 37 30 35 32 33
53 53 53 54 53 54 53 53 53 52 52 52 52 51 52 52 51 50 50 50 50 49 49 49 49 49 49 49 49 48 48 48 48 47 47 46 47 46 45 45 45 45 44 44 44 42 41 40 38 40 39 39 39 40 40 38 36 35 34 33 35 40 38
53 53 53 53 53 54 54 53 53 53 53 52 53 53 51 52 52 51 50 51 50 50 50 49 49 49 49 49 49 49 49 48 48 48 47 47 47 46 45 44 45 45 44 44 44 43 41 40 38 38 38 38 37 37 38 37 38 36 33 33 34 36 38
53 52 53 53 53 53 54 54 54 54 54 54 53 53 52 52 52 52 51 52 52 52 52 52 52 51 50 49 49 49 49 49 48 48 48 48 47 46 46 44 45 46 45 44 44 43 42 40 41 38 40 40 36 36 36 36 35 35 35 36 36 36 36
52 52 52 52 52 53 53 53 54 54 54 53 53 53 53 53 52 53 53 53 53 53 53 52 52 52 52 51 50 50 49 49 49 49 48 48 48 48 47 47 45 46 46 45 44 44 42 40 39 37 39 38 37 37 36 37 36 35 37 37 35 34 35
51 51 52 52 52 52 53 53 53 53 53 53 53 53 53 53 53 52 53 53 53 53 53 53 53 52 52 51 50 50 49 49 49 49 48 48 48 48 48 48 46 47 48 48 46 44 43 42 38 36 38 39 38 37 37 36 36 35 35 36 37 35 35
51 51 51 52 52 52 52 52 52 53 53 53 53 52 53 53 53 53 53 53 53 52 53 53 52 50 50 52 51 50 50 49 49 49 48 48 48 48 48 48 48 49 48 48 45 42 40 40 40 37 35 37 38 35 35 35 35 36 38 35 35 35 34
50 51 51 51 51 52 52 52 52 53 53 53 53 53 52 51 52 52 52 52 52 51 52 52 48 46 45 46 51 51 50 50 50 50 49 49 49 49 49 47 48 49 48 47 46 41 39 39 38 37 37 37 38 37 34 35 36 36 37 37 36 35 34
50 51 51 52 52 52 51 50 51 51 51 50 50 51 51 52 52 52 51 51 51 52 52 49 46 46 45 44 46 51 51 51 50 50 49 49 49 49 49 49 47 47 48 48 47 43 40 38 37 37 36 37 37 37 38 39 38 35 36 36 35 35 35
50 50 51 52 51 51 51 50 50 50 51 50 51 52 51 50 51 51 51 51 51 52 52 48 46 45 44 43 42 46 51 51 50 50 50 49 49 49 48 48 47 47 47 48 47 41 39 38 37 37 37 38 38 36 34 35 38 41 37 37 36 36 35
49 49 49 49 49 50 50 50 49 50 50 48 48 49 48 49 50 50 50 51 51 50 51 48 44 43 42 41 40 42 49 50 50 50 50 50 49 49 48 47 46 46 44 46 42 38 36 36 37 37 36 36 37 39 38 36 36 37 39 39 37 35 38
47 46 45 45 46 47 48 47 47 48 49 50 49 49 49 49 49 49 49 49 49 49 50 46 43 41 40 40 40 41 48 48 48 48 48 48 48 48 47 46 46 45 43 42 39 37 36 35 36 37 38 38 38 38 38 39 38 39 39 37 38 37 39
44 43 41 41 42 42 42 43 43 43 44 45 45 46 47 48 47 48 47 47 47 48 46 40 39 39 39 38 39 45 46 47 47 47 46 45 45 46 46 45 45 43 43 42 40 36 37 37 37 38 38 37 37 37 38 38 38 38 39 38 38 38 39
41 40 39 39 39 39 39 39 40 40 41 41 42 43 43 42 43 43 43 43 44 44 42 40 37 38 39 38 42 45 45 44 43 42 42 41 43 44 44 44 44 43 42 41 38 36 37 38 38 37 36 35 34 33 33 35 37 36 36 35 35 35 35
39 39 37 37 38 38 37 38 38 39 38 39 39 40 41 40 38 40 41 41 42 40 42 39 37 37 39 38 42 44 44 43 41 39 38 38 39 41 44 45 42 39 39 39 36 36 36 38 37 36 35 33 32 31 31 33 34 35 34 35 34 34 34
37 38 37 37 37 36 37 37 38 38 38 39 40 40 40 39 37 37 38 41 44 40 39 38 38 37 38 39 42 43 43 41 39 38 37 36 36 36 37 39 40 39 38 37 35 35 35 36 35 34 34 33 32 31 30 33 33 34 34 35 34 35 35
39 37 36 37 38 38 39 39 38 38 39 40 40 39 39 38 37 35 35 35 37 37 37 36 39 37 38 39 41 43 42 41 38 36 36 35 34 34 34 35 36 34 34 34 33 33 33 33 34 34 33 32 31 31 31 33 36 34 34 34 34 34 34
40 39 37 37 38 40 39 38 37 38 38 37 38 37 37 36 36 34 33 34 34 36 39 37 38 37 38 39 39 40 41 41 38 36 36 34 33 33 32 33 34 34 33 33 33 33 33 33 33 33 32 32 33 34 34 33 35 35 34 35 34 34 33
40 40 40 40 38 38 39 39 38 38 37 37 36 36 36 35 34 32 31 32 33 32 37 40 37 37 37 38 38 38 40 40 37 36 34 33 32 32 32 32 33 34 33 33 33 34 34 34 34 35 34 33 32 33 37 36 35 34 33 33 32 32 32
38 39 40 40 38 38 39 40 39 38 38 37 37 36 35 34 34 33 31 30 30 31 33 36 36 36 36 36 36 36 36 37 35 37 34 33 33 32 33 34 35 34 33 33 33 34 34 34 34 34 33 33 33 33 35 34 33 32 32 32 32 31 31
40 40 40 40 39 38 38 39 39 38 38 39 38 38 35 34 34 34 32 30 30 30 32 33 36 36 36 35 35 35 35 35 35 36 35 33 33 33 33 34 34 33 33 33 33 33 33 33 33 33 33 33 33 33 33 32 32 32 31 30 30 30 30

ECMWFFLT1_sfc_dewp_027.txt.gz
Dewpoint
58 57 58 58 57 55 56 56 57 58 59 60 61 61 63 63 63 63 63 63 62 61 61 61 61 61 62 62 62 63 62 62 62 61 59 60 60 58 60 60 60 61 61 61 59 56 54 50 46 49 50 51 51 51 50 50 51 52 53 50 44 45 48
58 57 57 55 54 56 56 56 57 56 57 59 58 60 61 62 63 63 63 63 63 62 60 60 61 60 62 62 62 62 62 62 61 61 60 59 61 60 60 60 60 59 59 60 59 57 54 50 47 46 46 47 49 50 50 49 48 50 49 48 44 43 47
58 57 55 54 54 56 55 56 57 57 56 58 59 59 61 61 62 62 62 62 62 61 59 60 61 61 61 61 62 62 62 61 61 61 61 60 60 60 60 60 59 58 58 57 56 54 53 52 48 45 47 46 44 45 49 46 46 45 45 46 46 42 44
58 57 55 54 53 55 54 55 56 56 57 57 58 59 59 60 61 60 60 60 61 60 59 59 61 59 61 61 61 61 61 61 60 60 59 60 60 60 60 59 58 57 57 56 55 54 52 50 46 45 45 42 43 46 47 46 44 40 40 43 43 43 44
58 57 56 55 54 54 55 54 54 55 56 57 58 58 58 58 59 59 59 59 59 60 60 59 59 59 59 58 59 59 60 60 60 60 60 59 60 59 57 53 53 54 53 51 49 51 51 48 47 45 43 42 41 42 44 47 42 40 39 38 38 40 41
58 57 56 56 55 54 54 54 54 54 55 56 56 57 56 58 58 58 58 58 58 58 58 57 57 56 56 56 56 58 59 60 59 60 58 58 58 54 51 53 50 49 48 50 50 48 50 50 47 44 43 43 44 43 43 45 42 39 38 37 37 37 36
58 58 56 55 56 56 56 56 55 54 55 56 56 55 55 56 56 57 58 58 57 57 56 57 56 55 56 52 55 56 56 56 56 56 55 55 55 55 54 51 51 49 50 51 49 48 46 45 42 44 45 46 46 40 40 39 41 39 39 37 37 36 36
60 58 60 59 57 55 55 56 55 54 54 54 53 55 55 57 57 57 57 57 57 57 56 56 55 55 56 53 53 55 54 54 54 54 54 54 53 53 55 52 51 50 49 47 46 45 42 45 45 46 44 44 45 44 42 38 37 39 40 38 35 33 32
58 59 58 56 56 56 56 55 55 55 55 54 55 55 56 56 56 56 56 56 55 56 55 55 54 53 55 55 53 54 52 51 54 54 53 54 54 54 53 52 49 48 50 47 46 47 44 47 46 47 46 41 41 41 43 42 41 38 38 38 35 31 27
59 58 56 56 56 56 56 57 55 55 56 56 56 56 56 56 56 56 56 56 56 55 55 54 54 53 54 54 53 53 52 53 53 52 53 52 53 53 53 53 50 48 48 51 49 49 50 50 48 47 41 39 40 38 39 41 41 41 38 35 30 28 28
58 57 57 57 56 55 55 55 55 54 55 56 56 56 56 57 57 56 56 55 56 55 55 53 52 53 54 52 52 51 51 52 51 51 52 51 53 52 52 51 50 48 52 50 49 52 51 51 49 47 44 44 42 38 38 36 39 43 42 39 30 24 28
58 57 57 56 56 56 55 55 55 55 55 55 55 55 55 55 55 55 56 55 55 55 54 54 53 53 52 52 52 50 52 51 49 50 52 52 51 51 50 50 50 48 52 52 52 51 52 50 48 45 45 44 45 45 42 39 39 42 44 40 32 27 29
56 56 57 57 56 55 54 54 55 55 55 54 56 55 54 54 54 54 54 54 55 54 53 53 53 52 53 53 52 50 51 50 48 48 48 49 46 49 49 48 48 47 49 48 50 51 49 50 50 44 44 44 43 45 41 39 39 41 44 37 31 28 30
57 57 58 58 57 57 57 56 56 55 55 55 55 55 53 53 52 53 52 53 52 54 53 53 54 53 52 52 52 51 50 48 47 48 48 49 47 48 46 46 46 48 50 48 48 48 45 44 46 45 45 41 39 41 39 41 39 40 43 39 33 28 33
57 57 59 58 59 57 57 56 56 54 54 55 55 54 52 54 53 52 51 51 53 52 53 53 53 53 52 53 53 53 51 48 47 48 50 45 47 48 49 44 44 48 48 45 47 39 40 40 39 38 40 38 33 36 41 36 36 36 37 37 32 30 31
57 58 59 58 58 57 57 58 55 54 54 54 54 54 54 54 53 52 51 52 51 52 52 53 54 53 54 53 51 53 53 50 49 49 49 47 44 46 47 46 46 48 49 47 48 46 46 41 38 37 40 35 35 35 32 32 35 33 34 31 35 30 35
58 58 59 59 59 58 58 58 56 55 54 54 53 54 55 53 53 52 52 51 51 51 51 53 53 52 51 52 52 51 52 52 50 49 47 46 45 47 48 48 48 48 48 47 46 46 46 45 43 40 40 39 38 36 37 38 36 34 33 32 34 26 32
58 58 58 59 59 59 58 58 57 54 55 55 53 54 53 53 53 52 54 51 51 51 51 51 51 52 53 53 52 52 52 51 52 50 50 49 51 48 49 48 47 47 48 46 48 45 44 46 40 41 38 35 33 36 38 36 34 35 36 36 36 36 37
58 58 58 58 59 58 58 57 57 56 55 54 55 54 54 53 53 52 51 51 51 51 51 51 50 50 51 53 53 54 53 53 52 51 51 50 49 50 50 48 49 48 47 48 47 47 46 46 43 42 38 32 30 36 39 38 38 38 35 34 37 38 39
58 58 58 58 59 58 57 57 56 56 56 55 55 55 54 54 55 53 52 53 52 52 52 52 52 53 51 51 52 52 53 53 53 53 52 51 50 51 50 49 50 50 48 48 49 48 48 48 46 44 42 41 33 37 38 37 35 37 37 37 37 38 37
58 58 58 58 57 58 57 57 56 57 57 56 56 54 54 54 55 54 54 53 54 54 54 54 54 54 53 54 54 53 53 54 53 53 54 52 52 52 52 51 51 50 50 51 50 50 50 48 46 44 42 40 39 39 39 39 39 36 37 38 35 36 37
57 57 57 56 56 56 56 57 57 57 58 58 58 56 55 55 54 54 54 55 54 55 55 56 56 56 56 55 55 55 54 53 54 53 53 53 53 52 51 52 52 52 52 52 49 50 49 48 47 44 41 40 40 40 40 39 38 36 37 37 38 39 37
56 56 56 56 56 57 56 57 58 57 57 57 57 56 56 56 54 55 55 55 55 56 58 58 56 50 51 55 55 54 55 54 53 53 53 53 53 52 51 52 53 52 49 48 46 44 42 43 44 44 42 41 39 40 40 40 38 37 38 37 36 36 37
55 56 56 57 57 56 56 57 57 57 57 57 57 57 56 55 56 56 55 55 55 57 58 55 49 46 45 48 54 56 55 54 54 54 54 54 53 54 54 51 52 52 49 48 48 42 41 40 39 38 39 40 41 42 41 40 39 40 37 37 37 37 36
54 55 56 55 56 56 57 57 56 57 58 57 57 57 57 56 57 56 57 56 57 56 57 51 46 45 44 44 47 55 56 55 55 55 54 53 53 53 53 54 53 53 52 50 50 49 44 40 38 37 36 37 36 36 38 44 41 39 39 37 37 38 38
54 54 54 55 56 56 56 55 55 56 57 57 57 57 55 56 56 56 56 55 56 56 57 50 45 45 43 43 41 47 54 55 55 55 54 54 54 53 54 54 54 53 50 51 50 50 47 43 38 38 38 37 37 36 34 35 37 44 41 38 38 39 39
54 55 55 55 55 55 55 55 57 57 56 56 57 55 56 55 55 55 55 55 55 56 56 48 44 44 43 41 40 42 55 57 57 56 56 55 55 55 55 54 53 53 52 51 50 49 47 42 39 39 40 39 40 40 38 36 36 36 38 40 40 39 41
53 54 54 54 55 55 55 56 56 56 56 55 55 55 55 54 54 54 55 55 55 55 55 41 41 40 40 40 39 39 55 56 56 57 56 55 55 55 54 54 54 53 51 50 50 48 45 42 41 41 41 41 41 41 42 42 43 42 41 42 42 41 41
47 51 52 53 54 54 55 56 56 55 54 55 54 54 53 54 54 54 54 54 55 56 53 38 39 39 39 39 38 51 55 56 56 56 54 52 51 51 51 52 52 51 50 49 42 38 40 40 40 40 41 41 40 40 39 37 37 37 41 41 40 39 39
43 46 48 50 52 54 54 54 55 54 54 54 54 54 54 54 53 54 53 53 54 56 53 42 38 39 38 37 44 55 56 55 54 52 50 49 49 49 49 49 49 48 48 45 38 35 36 39 41 41 41 41 40 38 37 37 36 36 35 35 35 34 34
41 42 44 46 48 49 50 51 51 51 53 53 53 53 52 51 51 52 53 53 54 54 53 44 37 38 38 38 47 55 54 53 51 49 47 46 46 46 45 46 46 46 45 41 36 36 36 40 42 41 40 38 37 35 35 36 37 37 35 35 34 33 34
43 43 41 42 44 45 46 47 47 48 50 50 50 49 48 47 47 48 49 51 45 52 51 43 38 37 37 37 46 54 51 50 49 47 45 43 44 43 42 41 41 43 43 40 36 36 37 41 42 41 40 39 37 37 36 36 37 36 37 37 37 38 37
44 45 43 44 43 44 44 44 45 45 46 45 46 46 45 46 47 45 45 46 47 48 49 47 42 37 38 38 41 51 50 48 47 45 44 41 41 41 40 39 37 35 34 34 34 34 35 37 41 41 40 38 37 36 35 37 37 36 36 35 35 37 36
44 45 43 44 43 42 44 46 45 45 46 46 46 45 47 47 46 44 43 44 44 45 46 47 43 37 38 39 40 43 50 49 46 44 42 39 39 39 37 35 35 34 33 33 33 33 33 34 36 39 38 38 38 37 35 36 37 35 35 35 35 34 34
44 45 45 44 43 44 44 44 44 44 44 45 46 46 46 44 43 41 41 42 43 44 42 42 45 39 38 39 39 40 47 47 44 43 41 39 37 37 36 34 34 34 33 33 33 34 34 34 34 35 36 33 33 34 35 34 35 34 33 32 31 30 31
44 44 45 45 44 44 45 44 45 45 45 45 45 45 45 43 41 40 39 40 41 42 43 41 38 42 37 38 38 38 40 41 36 44 41 39 38 36 35 36 35 35 33 33 33 34 34 34 34 34 33 33 33 33 34 33 31 33 31 31 31 31 30
42 43 44 45 44 43 44 45 44 44 44 44 44 44 43 44 43 42 40 39 40 38 39 40 38 37 39 36 37 37 36 36 37 43 42 39 37 36 36 36 34 33 33 33 33 33 33 33 33 33 33 33 33 32 31 32 31 32 31 30 30 30 31

ECMWFFLT1_sfc_dewp_030.txt.gz
Dewpoint
57 57 58 58 58 56 54 56 57 57 58 58 59 58 59 58 59 60 60 61 58 58 57 58 60 60 61 60 63 63 63 63 63 60 60 61 59 60 61 62 62 61 61 61 59 58 52 52 50 51 54 56 55 54 53 53 53 53 52 50 46 47 49
57 58 57 56 56 56 56 57 57 55 58 59 58 58 58 58 59 59 60 59 59 58 56 57 59 59 60 61 62 61 64 64 64 63 61 60 60 59 60 61 60 58 59 61 60 57 51 51 49 49 50 52 53 52 52 51 50 52 50 48 46 45 49
57 57 55 55 56 56 56 57 56 56 55 57 59 58 59 57 58 59 58 59 60 58 57 58 59 59 60 60 61 61 62 61 61 62 62 61 60 61 60 60 58 58 57 57 56 54 52 53 49 46 50 50 49 49 51 50 49 48 47 49 49 44 47
59 58 56 56 54 54 54 55 55 55 55 56 57 59 60 58 60 59 58 58 59 58 56 56 58 57 58 59 60 61 61 61 62 62 62 62 61 60 59 59 58 57 59 54 54 54 53 52 51 49 49 46 47 48 49 47 45 42 41 45 45 45 46
59 57 56 55 54 53 54 54 53 54 54 56 57 57 59 59 59 58 59 58 58 58 57 57 56 55 56 56 57 59 59 61 61 61 61 61 61 60 60 59 58 57 57 57 53 54 54 52 52 50 46 45 43 42 42 47 42 41 39 38 37 40 41
58 56 54 54 54 53 53 52 52 52 53 55 56 57 59 59 57 57 58 57 56 57 57 55 56 57 56 56 56 57 58 58 58 60 61 62 62 59 57 55 53 54 54 53 55 55 55 53 51 49 44 43 44 43 42 42 40 38 38 37 35 35 35
59 57 54 54 54 53 53 53 52 50 53 55 57 57 56 56 55 56 57 57 55 55 57 58 58 56 56 52 55 55 56 57 58 59 59 59 58 57 55 53 52 50 49 48 48 49 51 49 46 45 45 44 44 38 38 39 39 37 36 34 33 32 33
58 55 54 55 55 54 53 54 53 53 53 55 54 56 56 55 55 56 56 55 55 57 58 58 56 56 55 51 51 55 54 54 55 55 55 56 56 55 55 49 47 44 44 40 42 40 38 45 46 46 43 43 42 40 37 35 37 39 37 34 29 28 31
56 56 56 55 54 54 54 53 53 53 53 53 54 55 55 54 53 54 53 53 54 55 56 55 54 53 54 51 51 52 52 51 53 53 52 53 54 53 51 48 45 43 45 42 42 44 41 44 45 43 43 41 39 40 39 38 38 37 37 35 28 26 27
58 58 55 55 55 56 55 53 51 52 54 54 54 55 56 54 53 53 50 51 52 54 55 54 53 53 52 51 51 51 52 52 51 50 50 50 51 51 52 50 46 47 48 49 46 46 46 45 44 44 42 41 43 40 40 40 42 39 32 29 27 25 26
59 57 56 56 57 56 55 53 53 52 53 54 54 55 55 54 53 52 50 50 51 51 52 50 49 50 50 47 49 48 47 47 48 48 49 49 50 50 50 49 49 48 50 50 51 52 50 49 44 42 40 41 41 39 40 38 40 43 39 33 28 23 25
58 55 54 56 58 57 56 53 52 52 54 54 53 55 54 52 52 50 50 49 50 50 50 50 50 50 48 47 48 46 48 46 45 47 48 49 49 49 51 50 50 48 51 51 50 50 50 48 44 42 42 45 46 46 43 40 39 41 45 39 31 26 28
56 54 53 55 56 56 54 53 52 54 54 52 53 53 51 51 52 51 50 49 49 47 47 48 48 49 50 49 48 46 48 47 45 46 46 48 44 48 49 48 48 47 48 47 48 49 48 49 48 42 43 44 44 46 44 43 42 42 41 35 33 28 30
57 54 53 54 56 56 55 54 53 53 52 52 52 52 50 50 49 50 50 50 48 48 47 48 49 49 48 48 47 47 47 45 43 43 46 48 47 48 45 46 47 48 49 48 47 47 44 44 46 45 44 42 42 45 45 45 42 40 40 39 36 29 31
57 56 55 54 56 55 53 52 54 52 53 53 52 49 47 50 49 49 48 48 50 48 47 47 48 48 45 48 49 49 48 45 44 43 46 43 46 45 47 44 43 47 46 44 47 39 40 40 38 38 38 40 40 44 45 42 41 42 42 40 36 32 33
58 59 58 57 56 55 53 51 53 55 52 52 52 50 49 50 48 48 48 48 48 48 48 49 51 50 48 47 45 48 48 46 46 47 46 44 41 44 45 45 45 47 47 47 47 46 45 41 37 36 40 39 41 41 40 41 42 42 42 39 40 35 38
58 59 59 57 57 56 56 55 50 52 52 52 50 52 51 48 48 48 48 47 48 49 50 51 50 49 48 48 48 47 47 48 46 46 45 43 41 45 46 47 47 48 48 47 45 44 45 44 43 39 41 42 43 41 44 44 43 44 43 40 40 32 35
58 58 58 56 56 57 57 57 54 48 52 53 52 53 51 49 49 48 50 46 47 47 48 48 49 49 50 51 50 50 49 48 50 48 48 46 48 46 47 47 46 46 48 48 47 45 44 46 39 41 40 38 38 41 43 42 42 42 44 43 42 39 40
57 58 57 56 56 56 57 57 57 54 52 52 54 53 52 51 49 48 47 46 47 46 46 47 47 48 48 50 52 52 52 52 51 50 50 50 47 48 49 48 47 47 47 49 48 47 47 46 43 43 41 36 34 40 44 43 44 43 42 41 44 43 43
57 57 57 57 56 55 55 57 56 54 54 53 54 54 53 52 53 52 51 51 50 50 50 50 51 51 51 51 52 52 53 53 53 52 52 50 50 50 50 49 50 49 48 48 49 49 49 49 47 46 45 44 37 42 43 43 41 42 43 43 42 44 42
59 59 58 57 57 57 56 57 57 55 55 54 54 52 53 54 55 53 53 53 52 53 53 52 52 52 52 53 54 54 54 55 54 55 55 53 53 52 52 51 51 51 50 49 50 50 50 50 49 49 50 45 43 43 43 42 43 42 42 44 42 41 41
59 58 57 57 57 56 56 57 57 56 57 56 55 53 54 54 55 53 54 54 54 55 56 55 54 55 54 54 55 55 55 54 55 55 55 55 55 54 53 53 53 52 52 54 49 50 50 50 51 50 50 47 45 43 43 43 43 42 42 44 43 43 41
57 57 57 56 56 56 56 57 58 57 57 56 57 55 55 55 54 54 54 55 55 57 57 57 57 51 51 55 56 54 56 56 54 55 56 56 57 56 56 55 56 54 51 50 48 47 46 46 49 50 51 47 44 44 44 44 43 43 44 43 42 42 42
56 56 56 56 56 56 55 57 57 57 57 56 57 57 56 55 55 55 55 55 56 57 58 58 47 46 47 49 54 56 55 55 55 55 56 57 57 57 57 55 56 54 53 50 50 44 44 43 44 44 41 40 45 52 45 43 44 44 43 43 43 43 41
54 55 55 55 56 56 57 57 57 57 58 58 58 58 58 56 56 56 56 56 57 57 57 51 44 44 44 45 49 56 55 56 57 56 57 56 56 56 56 57 56 57 55 53 51 50 45 42 41 39 37 37 36 36 37 47 47 44 45 43 42 42 41
54 55 55 55 57 57 56 56 56 56 57 58 57 56 56 57 57 57 56 55 56 56 56 43 43 42 42 42 42 48 53 56 56 58 58 58 57 57 57 57 57 57 55 53 51 52 51 47 39 38 38 38 37 36 34 34 36 49 44 43 42 41 42
53 55 56 56 56 55 57 56 57 56 55 56 56 57 57 57 57 56 56 55 55 55 55 43 42 41 42 41 41 44 56 57 58 58 58 57 57 56 56 56 55 55 56 54 54 53 53 50 46 41 40 40 39 41 36 34 34 34 37 43 43 42 45
44 49 52 53 55 54 56 57 57 57 56 56 55 56 56 56 56 55 54 54 54 54 55 42 42 41 41 40 39 41 57 57 57 54 54 54 54 53 53 53 54 53 53 54 54 53 52 49 46 44 42 41 41 41 44 46 47 47 45 45 44 44 44
42 42 46 52 53 53 54 56 57 56 55 55 55 57 56 54 54 54 54 54 54 54 59 39 40 40 40 40 38 53 57 56 53 51 53 54 54 53 53 53 52 52 52 51 46 44 47 48 46 44 43 44 44 45 42 36 36 37 43 44 43 43 43
42 41 41 44 48 53 54 55 58 57 57 56 55 55 55 54 54 55 54 54 55 56 58 45 38 39 39 39 43 56 54 49 48 51 52 54 53 54 54 53 53 51 52 52 41 39 40 42 46 45 43 44 44 42 40 38 36 35 35 35 35 35 34
40 41 42 41 44 48 52 53 54 57 56 56 56 56 56 55 55 55 55 56 57 57 57 46 37 38 39 39 47 52 47 47 49 51 52 52 51 49 47 45 49 52 50 47 36 36 37 42 46 45 44 44 44 43 42 40 39 38 35 35 34 34 34
40 41 41 42 46 48 49 50 50 54 53 55 56 56 54 53 54 55 55 56 50 57 55 45 37 38 38 39 44 55 46 45 49 49 49 49 49 48 46 45 41 45 46 42 35 36 37 41 47 46 45 44 42 43 42 41 41 40 40 40 38 38 38
40 40 40 42 45 47 49 49 51 52 52 50 52 51 52 52 50 48 50 49 53 52 52 52 45 37 39 39 39 52 48 44 46 48 47 47 47 47 45 44 40 35 35 36 36 37 37 38 45 45 45 44 43 42 41 41 42 41 40 38 38 39 39
40 41 40 41 43 43 45 47 48 49 48 47 47 46 45 45 45 45 45 47 48 53 53 51 48 36 38 38 39 41 48 46 47 46 46 46 46 45 43 42 40 35 34 35 35 35 35 35 38 45 45 44 43 41 38 39 36 32 36 37 37 37 37
41 42 41 42 42 42 43 46 48 49 41 44 47 46 46 44 43 42 44 44 47 49 47 47 50 39 37 39 40 39 49 48 48 46 46 45 44 43 42 40 39 35 34 34 34 34 34 34 35 39 39 33 33 33 38 36 38 37 35 35 32 30 31
39 40 42 42 42 42 42 44 45 46 46 47 47 47 46 44 43 42 43 44 45 47 48 45 40 47 37 39 39 40 39 47 39 49 46 45 44 41 40 39 36 35 34 34 34 34 34 34 34 35 33 32 32 31 33 34 32 33 32 31 32 32 31
37 39 39 40 40 41 41 42 42 42 43 41 40 41 39 43 41 42 43 44 46 47 47 45 39 41 43 37 38 38 38 39 40 46 47 45 43 40 39 37 35 34 34 34 34 33 33 33 33 32 32 32 32 33 35 33 33 35 32 31 31 32 32

ECMWFFLT1_sfc_dewp_033.txt.gz
Dewpoint
56 55 57 56 56 54 55 55 57 57 56 56 57 55 57 56 58 59 59 59 57 56 55 55 58 59 60 61 63 63 63 61 62 61 59 59 59 60 61 61 61 61 62 62 58 56 54 54 53 53 55 56 55 55 53 52 51 51 52 51 46 48 50
55 55 55 54 53 56 56 56 57 55 57 58 57 56 57 56 57 59 59 58 57 56 54 56 58 58 60 62 61 62 62 62 63 63 61 60 61 60 59 61 60 58 61 61 59 56 55 52 50 51 52 53 55 53 53 52 50 51 49 48 45 46 50
54 53 53 53 54 56 57 58 57 56 55 57 58 57 57 55 56 58 57 58 58 56 56 57 58 59 59 60 61 61 63 62 62 62 63 64 60 61 58 60 58 58 59 57 60 58 58 57 50 49 52 52 50 51 53 51 49 48 46 47 47 44 47
56 55 54 55 52 54 54 55 56 56 56 56 57 59 58 57 58 57 58 57 59 59 56 56 57 55 58 60 60 60 61 62 62 63 62 62 61 60 59 58 57 56 60 55 57 56 56 56 53 49 51 48 47 48 48 47 45 40 40 44 44 45 47
57 55 54 54 54 53 54 54 54 54 56 56 57 57 58 58 58 57 57 58 57 58 56 56 56 55 57 57 58 59 60 61 61 61 62 61 61 60 60 59 58 58 58 57 57 59 56 56 52 49 46 46 45 43 42 45 38 38 37 36 37 41 43
56 54 53 53 53 52 53 53 52 52 53 55 56 57 57 56 56 57 57 57 56 56 56 53 55 56 56 56 57 58 58 58 59 60 61 62 61 59 56 56 55 56 56 58 60 58 58 59 55 47 43 42 42 40 37 39 38 35 34 33 33 34 36
55 54 53 53 53 52 52 52 53 52 53 56 56 57 55 55 56 58 57 55 54 56 56 57 56 54 54 52 55 55 56 57 58 59 58 58 57 56 55 52 52 50 50 51 52 52 51 50 47 45 44 43 42 36 36 34 35 31 31 29 29 32 34
55 53 52 53 54 53 52 53 52 53 55 56 55 56 54 54 54 55 54 55 56 57 56 56 55 55 54 52 53 55 55 56 56 57 57 57 55 52 52 48 47 44 43 41 41 43 44 48 46 45 44 40 41 39 37 34 37 34 32 28 26 29 33
55 54 53 54 54 54 54 53 53 54 55 55 55 54 52 52 53 52 53 54 55 55 55 53 53 52 51 51 50 52 52 50 53 53 53 53 52 51 50 48 46 44 46 42 43 44 42 45 46 44 43 40 36 35 36 35 37 34 34 30 28 29 31
57 55 55 56 55 55 55 54 53 54 56 55 54 53 52 52 51 51 51 53 54 54 54 53 51 51 51 51 51 51 52 51 52 49 50 51 51 50 48 48 46 45 46 49 46 45 46 46 44 43 41 41 41 37 38 40 40 34 30 28 26 27 30
57 57 56 55 55 55 53 53 54 54 54 54 53 52 52 52 50 48 49 50 51 51 51 50 48 48 50 48 48 47 47 49 49 49 50 49 51 51 51 51 51 49 51 50 49 51 49 48 44 43 42 43 43 41 40 39 42 42 36 33 30 26 28
58 57 55 55 56 55 53 52 52 52 54 54 52 52 51 48 48 47 48 47 49 49 49 49 49 48 47 46 45 44 46 47 47 48 49 50 50 52 51 51 50 49 50 51 51 50 50 47 44 42 44 47 47 48 43 42 42 43 43 38 33 31 30
56 54 55 56 56 54 50 51 51 53 53 50 51 50 47 46 46 46 45 45 46 46 46 47 47 47 47 46 45 44 46 45 42 44 45 47 44 49 50 49 48 48 48 46 48 48 47 48 47 42 44 45 45 48 46 45 42 41 41 38 36 32 33
55 53 54 55 55 53 53 51 52 53 50 50 50 48 46 45 44 46 44 43 42 46 47 48 48 48 47 46 46 45 44 43 42 45 47 48 45 47 46 48 48 49 49 47 46 45 43 42 45 45 45 44 45 47 47 46 42 41 43 43 40 33 38
55 52 54 54 55 52 51 50 53 51 52 50 49 46 45 47 46 45 43 41 42 42 44 45 47 47 46 47 48 48 46 42 42 44 47 45 47 46 48 45 45 47 46 44 46 38 38 38 37 37 39 43 43 45 46 44 42 43 43 43 40 37 37
57 55 54 52 55 52 52 51 49 51 51 48 49 47 46 47 45 45 45 44 41 42 43 45 47 46 47 46 46 48 48 46 45 46 45 44 41 44 46 46 46 48 47 47 47 46 44 40 36 36 40 40 44 44 43 44 44 43 44 42 44 38 40
57 57 55 52 54 54 52 51 48 49 48 49 47 48 47 45 45 45 45 44 43 43 44 47 47 44 43 44 45 46 46 47 47 46 44 41 40 44 45 45 46 46 47 47 44 44 42 43 43 40 41 43 45 44 47 47 45 46 44 42 44 36 38
58 58 57 55 55 53 53 51 50 47 49 48 48 48 46 45 45 44 47 43 44 45 46 46 46 46 47 47 45 46 46 45 47 46 46 45 49 45 46 47 45 45 47 47 47 43 43 44 39 41 40 39 40 44 46 45 45 44 45 44 44 44 43
58 58 57 56 56 54 55 54 49 49 49 46 48 49 47 45 43 42 42 42 43 44 45 45 45 46 47 49 49 49 48 48 48 46 47 47 45 47 48 47 47 47 46 49 47 47 47 44 43 43 41 40 38 43 46 45 45 46 44 43 45 45 46
58 57 57 57 57 56 55 55 54 46 48 49 48 48 47 45 46 44 42 43 43 44 44 45 46 47 47 48 50 50 51 51 50 51 49 48 46 48 49 48 49 48 48 49 49 49 48 48 49 48 45 47 42 44 45 45 43 44 44 44 44 44 43
57 57 58 57 57 57 55 55 56 53 49 50 50 48 47 48 47 45 44 43 44 45 45 45 46 47 47 49 51 52 52 53 52 52 53 51 51 51 51 51 51 50 49 49 51 50 50 50 48 48 48 46 44 44 44 44 44 43 44 45 43 42 42
58 59 59 59 60 57 57 55 55 55 54 51 51 49 49 48 48 48 46 47 45 47 48 48 46 49 50 50 52 53 53 52 54 54 54 53 53 52 52 53 52 53 52 56 50 50 51 50 49 48 50 47 46 46 45 44 45 44 44 44 43 45 41
57 59 59 58 58 58 57 57 57 56 56 53 51 49 48 49 49 49 49 50 50 53 53 54 59 51 51 54 55 54 56 56 55 56 56 56 56 55 54 54 55 57 53 50 48 46 45 46 48 54 53 51 48 47 46 46 45 45 45 44 44 43 41
56 56 57 57 57 56 55 56 57 58 57 56 54 52 51 49 50 50 50 51 52 56 56 57 47 47 48 49 55 57 56 56 56 56 56 56 56 57 58 57 56 58 54 50 50 44 44 44 45 41 40 41 43 55 48 46 46 47 46 46 44 41 41
54 55 55 55 55 55 56 56 57 58 58 59 58 57 55 53 52 52 52 53 54 56 58 52 44 45 46 46 48 60 56 56 56 56 55 54 54 57 58 58 58 58 58 56 53 51 48 43 42 39 37 37 36 36 38 46 46 47 47 45 45 45 44
53 54 54 55 55 58 57 57 57 58 58 59 60 58 56 56 56 55 53 53 54 56 58 45 44 43 44 43 41 47 55 55 55 55 55 55 55 57 58 55 58 59 59 56 57 56 50 49 40 39 38 38 38 36 34 34 36 46 47 46 46 45 44
52 54 55 55 55 56 57 57 58 58 58 58 58 58 58 58 57 57 56 55 55 57 59 47 42 43 43 41 41 43 52 53 55 55 56 57 58 58 58 56 57 57 58 57 57 54 52 50 47 44 45 45 43 43 35 34 35 35 39 44 45 45 47
43 46 49 50 52 53 56 57 58 57 57 57 57 56 56 56 57 57 56 56 57 57 58 46 42 42 42 42 42 40 53 54 57 59 58 57 55 56 56 57 57 56 56 57 55 53 53 51 49 48 47 47 45 42 42 41 42 45 44 45 46 46 47
41 41 42 47 49 49 51 55 57 58 57 57 56 55 55 56 56 56 56 57 58 59 62 41 42 43 42 41 40 52 54 55 57 57 56 56 55 54 52 52 50 51 53 53 50 45 48 52 51 49 48 48 45 44 45 35 36 37 45 47 47 46 44
41 41 41 41 41 47 50 53 56 56 56 56 56 55 55 55 54 55 54 55 55 56 60 44 41 42 41 40 42 54 55 54 55 53 54 54 52 50 52 53 51 48 50 53 45 42 43 46 51 49 48 47 46 46 44 39 36 35 35 35 34 35 35
39 41 41 41 42 45 46 48 49 55 55 55 55 55 54 54 54 54 53 54 54 54 57 48 39 41 41 40 47 55 53 54 54 53 54 52 50 51 49 46 49 51 53 52 39 41 41 47 50 49 47 47 47 45 43 41 39 39 35 34 34 34 33
39 40 41 41 44 44 43 44 45 47 51 54 55 54 54 54 54 55 56 56 56 56 57 48 39 39 40 40 46 56 56 50 46 50 49 48 50 49 49 44 41 44 49 45 37 39 40 43 49 48 48 47 46 45 44 43 43 41 40 40 39 41 39
38 39 41 42 43 43 43 43 44 45 47 47 48 51 53 54 55 55 56 57 58 58 57 54 45 39 40 40 41 54 52 45 45 48 46 47 47 48 48 45 40 36 36 36 36 36 37 37 46 47 46 45 43 44 45 45 47 44 44 43 42 42 42
36 38 39 41 42 42 42 42 42 43 44 45 46 48 54 53 53 53 54 56 57 55 53 55 47 39 40 40 40 42 55 47 47 46 46 45 46 47 45 42 40 36 35 35 35 35 36 36 38 47 46 44 45 44 42 43 43 32 37 38 39 39 38
36 38 37 37 39 40 42 42 42 43 41 42 43 49 52 53 50 50 51 52 52 52 53 51 51 38 39 40 40 38 51 48 49 46 45 45 44 45 44 42 39 37 35 35 35 35 35 35 37 41 39 32 32 34 43 42 41 38 38 38 35 33 33
36 35 37 38 38 40 40 41 42 43 44 44 43 42 48 48 44 44 46 51 46 50 51 50 45 44 36 38 38 38 38 44 42 58 46 45 45 44 44 41 37 36 34 34 34 34 34 33 34 34 32 31 31 30 31 34 35 35 32 33 34 33 31
33 34 34 35 36 37 38 39 40 41 42 42 41 41 42 45 44 43 43 42 43 44 48 48 43 43 41 37 39 39 38 38 40 50 47 44 45 43 41 39 36 34 34 34 33 33 33 33 33 32 31 32 31 31 35 36 32 35 33 31 31 32 33

ECMWFFLT1_sfc_dewp_036.txt.gz
Dewpoint
63 60 63 63 61 60 62 61 63 64 62 62 63 57 60 62 63 64 64 64 62 59 60 62 65 63 65 65 64 65 65 63 63 62 60 62 61 60 62 61 62 62 62 62 57 55 54 53 54 59 59 59 59 59 60 57 55 56 56 53 50 50 51
59 61 59 58 60 61 62 62 61 59 62 64 61 64 61 60 64 64 63 64 65 60 57 59 64 62 63 65 64 64 64 64 63 63 61 60 60 60 60 60 61 62 62 61 60 57 55 53 54 54 54 55 55 55 54 53 54 55 52 50 49 50 51
60 60 59 60 60 62 62 63 63 63 62 63 66 62 62 60 60 61 62 63 62 59 60 59 61 62 63 63 63 65 64 63 65 64 63 63 61 62 61 61 60 60 60 60 60 59 58 58 54 50 51 51 50 53 54 51 50 48 45 49 49 48 49
60 60 59 59 60 62 62 62 63 62 62 62 63 64 62 61 63 61 61 61 61 63 59 61 61 59 63 63 62 63 63 63 63 63 63 62 62 61 61 61 61 59 58 57 58 58 57 57 54 52 50 49 49 51 54 50 44 42 43 49 48 48 49
60 59 58 59 59 59 61 61 63 62 62 61 63 63 63 63 63 63 63 62 62 63 63 63 59 60 61 61 62 62 62 63 63 63 62 62 62 61 61 59 59 60 60 58 58 60 58 57 54 51 49 46 45 42 42 48 40 40 39 39 41 45 46
62 60 59 60 60 60 60 61 60 61 60 60 61 60 62 62 62 62 62 61 60 61 61 59 59 59 60 61 61 60 61 61 62 62 62 62 61 59 59 60 58 58 59 59 59 59 60 58 56 49 45 45 43 40 36 39 37 34 34 33 34 38 41
62 60 61 59 61 60 61 61 60 61 60 61 60 61 61 62 61 58 58 58 60 61 60 61 60 59 59 57 59 59 59 61 62 61 60 60 60 60 60 58 55 56 58 60 59 59 57 58 54 52 45 42 41 36 35 32 29 28 29 30 33 35 38
61 61 61 62 61 61 62 59 63 61 61 60 59 58 58 59 60 60 60 61 60 59 60 60 58 57 58 56 57 60 60 60 60 60 59 57 55 54 54 52 52 53 55 56 58 58 56 56 55 49 44 43 44 40 36 32 30 28 27 28 31 35 40
59 60 61 61 63 65 63 63 62 62 60 60 58 58 59 59 58 58 58 59 59 60 60 59 57 55 57 57 57 57 55 56 58 56 55 56 56 56 53 53 51 50 52 53 50 52 52 54 50 55 47 46 43 41 40 39 37 31 28 27 30 34 36
59 60 60 62 61 63 64 64 61 61 60 58 57 58 57 58 59 58 57 58 59 58 55 56 56 57 57 57 57 55 53 53 54 53 55 55 54 54 54 53 53 53 53 54 52 52 52 53 53 52 54 51 52 40 41 39 39 37 30 28 28 32 34
60 61 60 60 60 61 62 61 61 59 58 57 56 56 58 57 56 56 57 57 57 58 59 57 53 55 56 55 54 54 54 56 56 56 55 56 57 56 54 52 53 53 53 51 53 53 52 51 52 52 50 50 49 50 44 42 42 43 40 35 33 29 32
61 60 59 59 60 59 59 60 60 60 58 58 56 57 56 55 55 55 55 54 56 54 55 56 56 54 53 53 53 53 55 54 53 54 55 56 56 56 54 54 54 54 56 56 55 53 53 57 50 48 51 50 53 51 47 44 43 45 45 42 39 33 35
58 57 58 59 59 57 57 57 58 59 58 57 56 56 54 53 53 53 53 52 53 52 53 54 53 54 54 54 54 51 50 50 49 50 51 53 50 54 54 54 55 54 53 51 52 52 51 51 52 50 51 51 51 49 45 44 42 44 48 45 42 36 37
59 57 58 59 58 59 58 57 59 58 56 58 55 55 53 51 49 51 49 49 49 53 53 54 55 55 54 53 52 52 52 50 48 50 51 52 51 52 50 51 51 52 53 52 50 50 47 47 49 50 50 50 50 51 46 44 42 43 45 53 51 41 43
57 57 59 59 59 58 58 59 60 57 58 56 55 52 50 54 52 50 48 47 49 48 50 52 54 55 51 54 53 53 54 52 50 51 54 50 51 52 54 50 51 54 54 51 53 40 42 44 40 44 48 48 47 49 49 46 43 44 44 47 46 40 44
57 58 58 58 57 56 57 58 57 59 58 56 57 56 53 54 52 50 49 49 47 48 49 51 55 53 54 53 52 54 54 53 53 53 51 50 46 51 51 52 52 52 53 53 52 49 49 43 41 41 45 47 47 48 47 48 48 46 44 46 49 40 44
56 57 57 57 57 57 56 56 56 57 55 54 54 57 53 52 53 53 51 47 47 48 50 52 51 49 49 52 53 52 52 53 52 52 51 47 46 51 51 51 52 51 52 50 51 50 50 50 48 44 45 48 50 49 50 52 49 49 49 45 51 38 44
57 57 57 57 58 56 57 55 54 52 57 55 54 57 51 54 53 51 54 48 47 49 49 50 49 50 53 53 54 54 52 52 53 52 51 52 51 51 51 52 50 51 51 51 51 50 50 48 44 47 46 45 46 49 51 50 49 48 50 49 49 48 48
60 58 58 57 58 58 55 56 55 55 53 52 56 57 51 53 49 48 48 47 47 47 48 51 49 48 48 54 54 54 54 53 53 51 51 52 50 53 52 53 52 51 51 53 51 52 50 46 49 46 47 44 43 49 51 49 49 50 48 47 48 47 46
61 60 59 59 61 59 56 61 54 54 55 54 56 56 52 54 54 53 46 51 48 49 48 49 52 52 50 51 52 52 55 54 54 54 53 52 51 53 52 52 53 53 52 53 52 54 51 53 52 51 51 48 45 49 50 48 47 48 49 48 47 49 46
61 61 60 61 59 60 61 61 58 58 56 57 54 53 53 53 53 54 51 51 50 51 52 50 52 53 52 54 55 54 56 55 54 55 55 53 53 53 54 54 54 54 52 53 54 54 54 54 52 52 52 50 48 48 48 49 48 47 47 46 45 46 46
60 60 59 59 59 60 60 60 60 59 58 59 56 53 55 54 52 50 52 52 53 52 55 52 53 53 54 53 55 56 56 54 56 55 55 55 55 55 54 54 55 55 55 54 51 51 52 52 52 51 51 50 49 48 48 47 48 47 47 48 48 48 46
59 60 59 60 60 60 59 59 59 58 57 58 58 55 56 55 52 51 52 53 54 56 56 55 53 48 49 57 54 52 57 57 56 56 56 55 56 56 58 58 57 57 54 52 48 44 43 45 47 48 50 51 51 50 49 49 47 47 49 48 48 45 46
59 59 59 60 59 58 58 59 58 58 59 59 59 59 57 53 53 51 50 53 56 57 58 58 46 45 47 49 56 57 57 57 58 57 57 57 58 60 58 57 57 57 56 54 53 43 41 40 39 39 39 41 45 50 51 49 49 49 48 47 46 46 45
58 58 58 57 58 57 58 58 58 59 60 60 59 60 58 57 55 56 54 53 56 56 57 49 44 47 47 46 46 56 58 58 59 58 58 58 58 58 57 56 55 56 57 57 56 54 47 41 40 39 38 37 36 37 40 47 49 48 48 48 48 47 45
55 56 56 57 58 58 58 59 58 58 58 59 58 59 58 58 58 59 58 55 56 58 58 50 47 45 46 46 42 49 57 59 58 58 57 59 57 57 55 55 55 57 57 56 57 55 53 49 41 40 39 39 38 36 34 35 38 46 47 48 47 47 47
54 56 57 58 57 56 57 57 59 59 58 57 57 58 59 59 60 59 59 58 56 58 55 50 46 44 44 43 42 45 55 58 58 58 59 57 58 56 57 55 53 56 58 57 57 57 55 52 48 45 45 46 43 38 36 35 35 36 40 47 47 47 49
44 51 56 57 57 55 56 57 57 57 57 58 58 57 58 58 59 58 58 58 58 57 56 48 46 44 42 42 42 44 53 55 55 56 56 53 54 56 57 56 56 57 57 57 56 56 56 53 49 48 47 48 48 44 46 45 46 47 47 47 47 49 48
46 44 45 48 52 55 57 57 57 59 58 58 58 59 58 58 58 58 58 58 58 58 57 46 45 43 42 41 42 50 53 54 54 55 57 57 56 56 56 57 57 57 57 57 52 48 51 53 50 48 49 48 48 45 40 35 36 37 42 44 44 44 41
43 44 45 45 46 52 54 55 57 57 57 57 57 57 57 57 57 57 57 57 57 57 57 49 43 42 41 41 44 51 54 53 53 53 56 57 57 57 56 56 56 55 56 56 50 45 44 46 50 49 48 49 48 45 42 40 37 35 35 35 35 35 35
39 42 43 43 46 49 48 49 52 57 56 56 56 56 56 56 56 55 56 55 56 56 57 52 44 43 41 40 46 52 53 53 52 53 55 55 55 51 48 49 52 54 54 54 46 43 42 49 52 51 50 49 47 45 44 43 42 40 35 35 35 34 34
39 41 42 44 47 47 48 49 48 49 54 54 55 56 54 53 54 55 55 56 55 56 56 48 41 41 41 41 45 53 53 52 52 54 54 53 53 50 46 43 45 50 51 45 40 41 43 48 52 51 50 48 47 45 43 42 42 40 40 39 39 41 39
39 40 40 42 45 46 46 46 47 48 48 46 48 51 53 53 54 55 56 57 58 57 56 55 46 40 41 40 42 52 54 53 53 53 52 50 51 49 45 43 40 37 38 37 37 37 37 40 47 49 49 48 47 47 44 43 44 43 42 42 43 40 42
39 39 39 41 42 43 43 44 46 47 46 46 47 48 54 57 55 53 54 57 57 55 55 55 51 40 41 41 41 44 53 54 52 51 52 49 49 49 45 41 40 37 36 36 36 36 37 38 41 46 46 44 45 46 43 43 39 39 42 41 41 42 43
39 41 39 40 40 40 41 41 42 44 44 44 45 47 47 54 52 51 53 55 55 55 54 51 54 41 40 41 41 40 51 55 55 54 51 49 48 47 43 40 39 37 35 36 36 36 35 35 36 38 35 32 33 38 45 43 42 40 40 39 39 38 39
38 38 38 39 39 40 41 41 42 43 45 45 45 46 46 52 52 52 52 53 55 55 55 53 48 46 40 40 40 40 42 48 45 51 51 51 54 46 43 39 38 36 35 35 34 34 34 34 34 32 32 31 30 30 35 40 40 41 39 38 38 37 35
37 38 38 38 37 37 37 38 39 40 39 41 41 43 44 47 51 49 49 50 52 52 53 53 46 44 43 39 40 39 40 39 38 47 51 51 47 41 39 37 36 34 34 34 33 33 33 32 30 32 32 31 30 33 38 39 37 38 35 34 34 34 36

ECMWFFLT1_sfc_dewp_042.txt.gz
Dewpoint
56 56 57 58 57 58 57 58 60 60 61 61 61 60 60 60 60 60 59 60 61 61 62 62 61 61 62 62 62 61 60 60 59 59 57 57 57 57 58 57 58 58 57 56 55 54 53 53 54 57 58 58 58 58 59 56 54 53 52 52 50 50 50
56 56 57 57 57 57 56 56 58 58 58 58 58 60 60 60 61 60 59 60 60 60 61 61 60 62 62 61 61 61 60 59 59 58 58 57 57 57 57 56 58 57 57 56 56 54 53 52 52 53 54 55 55 55 58 55 52 51 51 50 50 49 50
56 55 56 56 55 55 56 56 56 56 57 57 57 57 58 59 59 58 58 58 60 60 60 60 60 61 61 61 61 61 60 59 59 59 58 58 58 58 58 58 56 55 55 54 54 54 53 52 53 53 54 54 53 52 53 51 50 50 49 48 47 46 46
54 54 54 54 54 55 56 55 55 56 56 56 57 56 58 58 57 58 58 58 59 60 60 60 59 60 60 61 60 60 60 60 58 58 57 57 57 58 57 58 57 56 55 53 53 53 52 51 53 53 52 53 51 47 48 50 49 47 45 45 44 43 44
54 54 53 53 55 56 56 55 55 55 56 56 56 56 56 57 57 56 57 57 58 58 58 59 59 60 60 60 59 59 59 58 59 59 58 57 57 57 56 57 56 55 55 54 54 54 52 52 52 52 52 48 47 47 47 47 47 47 46 44 44 44 43
53 53 53 54 56 56 56 56 55 55 55 54 54 55 55 56 56 55 55 54 55 57 58 59 58 59 59 59 58 58 58 59 59 59 58 57 58 57 57 57 57 57 55 55 55 54 53 52 52 50 48 47 46 44 43 44 40 40 45 46 45 44 43
53 53 53 55 56 55 57 56 55 56 55 54 54 54 54 55 55 55 56 55 55 56 57 57 57 57 58 59 58 58 58 57 57 57 57 57 56 56 56 57 57 56 56 57 56 53 52 51 50 48 47 44 44 41 35 34 39 38 40 43 47 45 44
54 53 54 55 55 55 56 56 56 56 56 55 54 54 54 55 55 54 54 53 54 55 56 57 57 57 57 58 58 57 56 56 56 56 56 57 57 56 55 56 56 56 57 57 55 53 53 51 50 48 45 42 38 35 34 31 31 36 38 39 44 46 45
55 54 54 55 55 56 56 56 56 56 56 55 54 55 54 55 54 53 54 54 54 54 54 55 55 55 55 55 54 53 53 54 52 51 51 52 52 53 53 54 56 56 57 57 55 54 53 52 51 48 44 41 36 32 33 31 32 33 37 36 37 42 46
54 54 55 55 55 56 57 57 56 55 54 54 54 54 54 53 54 54 54 53 52 53 53 54 54 54 53 53 52 52 51 51 52 50 50 49 50 51 51 53 54 54 55 55 55 55 54 53 51 46 43 40 37 31 30 32 32 33 32 35 34 37 44
55 55 55 56 57 57 56 55 54 53 53 54 54 54 53 54 55 56 52 51 51 52 52 52 51 51 51 50 50 51 51 52 52 52 52 50 49 50 50 50 50 50 51 51 53 53 53 53 51 46 45 43 35 32 32 31 30 37 34 35 34 34 38
55 55 55 56 56 55 54 53 52 52 53 53 54 53 52 53 52 51 51 51 51 51 51 51 50 50 50 50 50 50 50 51 50 50 49 50 50 50 48 47 47 48 49 50 50 49 49 50 51 47 45 44 39 34 33 34 32 36 36 34 34 35 37
55 54 55 55 55 54 53 52 52 51 52 53 52 52 52 52 51 51 51 50 50 51 50 49 49 49 49 50 50 50 50 51 51 50 49 49 49 48 47 47 47 46 47 47 48 48 48 48 49 47 46 43 41 39 37 35 33 34 42 38 37 35 37
54 54 54 55 54 54 53 52 51 51 53 51 51 51 51 51 50 50 50 50 50 49 47 47 48 48 49 49 48 49 49 50 50 49 50 49 50 50 49 49 49 48 46 45 46 47 47 47 47 47 45 42 42 40 37 37 34 37 38 43 39 35 36
54 53 53 54 55 54 53 52 52 52 51 51 50 50 50 50 50 50 49 49 49 48 47 47 47 48 48 48 47 49 49 49 49 48 48 48 48 50 48 48 48 47 47 44 44 43 45 46 45 44 43 42 40 41 40 40 38 36 35 40 38 40 38
57 55 53 53 54 54 54 53 53 51 51 51 51 49 49 49 49 48 48 48 49 48 48 48 48 48 47 47 47 47 49 48 48 48 48 48 49 48 47 48 47 47 47 45 45 44 45 45 45 43 44 43 41 41 42 40 39 38 37 39 41 38 39
58 57 55 54 53 54 54 53 53 52 51 51 51 50 48 48 48 47 48 48 48 48 49 49 48 47 48 48 48 48 48 48 48 48 49 48 48 47 46 45 45 46 45 44 44 45 46 46 46 46 46 46 44 45 45 42 40 42 40 38 41 38 40
57 57 56 56 54 54 53 53 53 52 51 50 51 50 49 48 47 47 48 47 47 49 49 49 48 48 49 49 48 49 49 48 48 48 48 48 52 47 46 45 47 46 45 44 44 44 45 44 45 46 45 46 46 47 48 45 45 44 40 38 40 42 42
57 57 56 56 56 53 53 53 53 53 50 50 52 50 48 48 47 46 46 47 48 49 49 48 47 49 50 48 48 48 48 48 48 47 48 49 48 47 47 47 47 46 44 44 44 45 45 45 45 45 45 45 46 47 46 46 46 44 40 40 40 40 42
57 57 56 57 58 56 52 52 52 52 51 50 51 49 48 49 49 46 46 47 48 48 48 48 47 49 49 48 47 47 48 49 48 47 47 48 47 47 47 47 47 47 46 46 47 47 47 46 46 45 46 46 45 45 45 45 46 44 43 43 43 41 40
56 57 57 57 57 56 53 52 52 52 52 51 51 48 47 49 49 47 46 46 48 48 48 47 47 48 49 49 47 47 48 48 48 47 47 47 48 48 47 47 47 48 47 47 47 47 47 46 46 45 45 46 45 45 44 45 44 44 44 43 42 43 43
56 57 57 57 57 56 56 56 55 55 54 54 52 50 48 49 48 48 47 47 47 48 48 48 48 47 48 49 48 48 48 49 49 48 48 48 49 50 50 50 50 50 52 54 51 50 49 49 46 45 44 45 44 44 44 43 44 44 43 44 44 44 42
57 57 57 56 56 56 56 55 55 55 55 55 55 54 52 50 48 48 47 47 47 49 49 49 50 48 48 48 48 48 49 49 49 50 51 50 50 51 52 51 52 56 54 52 49 46 45 46 47 46 45 45 46 44 44 44 43 43 44 44 44 43 42
56 57 57 56 55 55 56 55 55 55 55 55 55 54 54 53 51 47 47 48 48 49 49 49 46 43 42 45 48 49 49 49 50 51 51 51 51 52 51 51 51 51 50 50 46 44 44 44 45 45 45 46 47 44 44 45 44 45 45 44 43 43 42
55 56 55 55 55 55 55 54 54 53 54 54 53 53 54 53 53 52 49 48 49 49 49 48 44 42 42 43 46 49 50 49 51 52 52 52 52 53 52 51 50 51 49 48 45 43 42 42 41 42 42 42 42 43 45 45 46 45 45 45 43 43 43
55 54 54 53 54 54 54 54 54 53 53 53 53 53 52 52 53 53 51 48 49 51 51 46 42 42 42 43 44 47 50 51 52 52 52 53 53 53 53 52 52 51 52 52 51 45 43 41 39 39 39 39 38 37 38 42 44 47 47 45 45 44 44
50 52 54 54 54 53 53 53 52 52 52 52 52 52 52 52 52 52 53 52 50 51 51 46 41 42 42 42 43 47 52 53 53 53 53 53 54 54 53 53 52 52 52 52 50 47 45 43 42 42 42 41 39 38 37 37 40 43 45 46 45 45 46
40 42 46 49 50 52 52 52 53 52 52 52 53 52 52 52 52 53 52 52 52 51 53 48 42 41 42 42 43 48 53 54 54 54 54 54 53 54 53 53 53 53 53 53 52 49 48 45 44 44 43 40 38 41 42 43 43 44 47 47 46 46 46
38 39 40 41 42 43 46 51 52 50 50 50 50 50 50 49 51 51 51 52 51 51 52 46 42 42 42 41 41 48 50 53 54 54 54 53 51 52 53 54 53 53 52 53 51 45 46 47 46 45 45 42 40 37 37 38 37 37 45 47 46 45 43
38 38 38 38 38 39 40 41 44 46 47 48 48 48 49 49 50 51 51 51 51 53 52 49 43 42 42 39 44 48 48 49 50 53 53 53 52 53 54 54 54 53 52 52 48 43 44 45 47 46 45 42 40 38 36 35 37 39 40 40 39 38 37
37 37 37 37 37 38 38 38 38 41 42 43 45 46 48 49 50 50 51 51 52 52 53 51 46 41 41 41 46 50 50 50 48 50 51 50 52 53 53 53 54 53 53 52 45 42 43 45 48 47 46 43 39 37 34 35 35 35 36 35 35 35 35
37 37 37 37 37 37 37 37 38 38 38 38 39 40 43 45 48 49 50 51 53 53 52 51 46 43 41 41 45 49 50 50 49 49 50 51 50 52 53 52 52 52 52 51 43 41 42 46 49 48 47 43 40 37 35 35 35 32 32 31 31 32 32
37 37 37 37 37 37 37 37 37 37 37 37 37 39 40 42 44 46 48 49 50 52 52 52 50 44 43 41 43 49 50 50 50 50 50 50 51 51 51 50 48 45 44 44 41 40 41 44 49 48 47 45 42 41 38 35 35 33 33 33 31 34 33
37 37 37 37 37 37 37 37 37 36 36 36 36 36 36 38 40 44 45 46 48 48 51 52 51 45 44 43 42 45 49 50 51 51 50 49 51 51 49 48 46 43 41 42 41 40 41 42 45 48 47 46 44 43 38 36 38 38 36 36 36 36 38
38 39 38 37 36 36 36 37 37 37 37 36 35 35 35 36 37 38 40 43 45 47 50 50 51 48 44 43 42 42 48 50 50 51 50 50 50 50 49 47 46 43 39 39 42 41 41 42 43 47 47 42 39 38 39 39 38 38 39 39 38 37 36
37 38 38 37 36 36 36 36 36 36 35 35 35 34 35 35 35 36 37 39 41 45 47 48 46 48 46 43 42 41 42 46 45 50 51 50 50 50 48 45 43 39 38 39 40 41 41 42 42 46 42 38 38 37 39 40 38 39 38 37 36 34 33
36 36 36 36 36 35 35 36 36 36 35 35 34 34 34 35 34 34 35 35 37 39 43 46 45 45 46 45 42 41 40 40 42 48 51 51 50 49 45 42 40 36 37 38 39 40 40 40 43 40 39 38 38 39 41 39 37 37 35 33 33 32 32

ECMWFFLT1_sfc_dewp_045.txt.gz
Dewpoint
59 57 57 58 57 58 58 59 59 59 59 59 60 59 60 60 59 59 59 60 60 60 61 60 61 60 60 60 61 60 59 60 58 58 56 56 58 57 58 56 57 56 55 54 55 54 54 54 56 57 58 58 57 56 56 55 55 53 51 50 49 48 48
58 58 58 58 57 57 57 57 58 59 58 58 59 59 59 59 60 59 58 59 60 60 61 60 59 61 60 60 60 60 59 59 58 58 58 58 56 57 57 55 56 55 55 54 55 54 53 54 54 55 55 57 55 54 53 52 52 51 50 49 50 48 50
57 57 57 56 55 55 56 55 56 56 56 56 56 57 57 58 59 58 58 59 59 60 61 60 59 60 60 60 60 60 59 58 57 58 58 58 57 56 57 56 54 53 53 53 52 53 53 52 54 54 54 54 53 50 51 50 50 49 49 49 47 46 46
56 56 56 54 54 54 55 54 55 54 55 55 56 56 56 56 56 58 57 58 58 60 60 59 60 60 60 60 60 60 59 59 58 57 57 57 57 57 56 57 56 55 54 52 53 52 52 52 54 53 53 53 52 50 50 50 48 45 45 45 45 44 44
56 56 56 54 54 55 54 54 54 54 54 54 55 55 55 56 55 55 57 57 58 57 57 58 58 59 60 60 59 60 59 58 58 58 57 57 56 57 55 56 55 54 53 53 54 53 53 54 54 53 51 47 47 47 48 47 46 46 45 43 43 44 44
56 56 55 54 54 55 55 54 54 54 53 54 54 55 54 54 55 54 55 56 56 56 56 57 57 58 59 58 59 58 58 58 58 57 57 57 57 57 57 55 56 55 54 54 54 53 53 54 54 52 48 47 46 46 46 46 43 42 46 45 44 44 43
55 55 54 54 55 55 55 55 55 54 53 54 54 54 54 54 54 54 54 54 55 55 56 56 56 56 57 58 58 58 58 57 57 57 56 56 55 55 55 55 55 55 54 55 54 53 53 53 52 49 45 45 46 45 38 39 41 43 43 45 46 45 44
54 54 55 56 55 55 55 55 55 54 54 54 54 54 54 54 54 53 53 54 54 55 55 55 56 55 56 56 56 55 55 56 57 56 56 56 56 55 54 55 55 55 55 55 53 53 53 53 51 47 45 44 40 39 37 32 34 40 43 39 45 45 45
55 55 55 56 56 56 55 55 55 54 54 53 52 54 53 54 53 53 53 53 53 54 54 54 54 55 54 55 53 52 53 55 55 55 56 56 56 55 55 54 55 55 56 55 53 53 52 51 49 47 46 45 42 38 35 37 34 37 39 40 40 43 45
54 54 55 55 55 56 56 55 56 55 54 53 53 53 53 52 53 52 52 52 53 53 53 53 53 52 52 52 52 50 50 50 52 53 53 55 54 54 54 55 55 54 55 54 54 53 52 50 48 46 44 43 43 39 34 35 35 37 40 36 41 42 45
54 54 55 54 55 55 54 55 54 54 53 53 53 53 52 52 54 55 51 50 51 52 52 52 52 51 51 50 50 50 50 50 51 50 50 51 51 53 53 53 53 54 54 55 54 53 52 49 47 45 42 40 39 39 36 36 36 36 40 37 36 37 42
55 55 55 55 55 55 55 54 54 53 53 52 53 52 52 51 50 50 50 49 50 51 50 50 50 50 50 50 50 49 49 49 50 49 48 50 50 52 52 52 51 52 52 54 53 53 52 50 47 44 43 40 40 38 36 37 34 35 37 38 35 35 40
55 55 55 55 55 55 54 54 53 52 52 53 51 51 51 50 49 49 49 49 49 49 49 49 49 49 49 49 49 50 49 49 49 49 48 48 48 48 49 50 51 52 51 52 52 52 52 51 49 44 43 41 39 38 37 36 34 34 39 37 36 35 39
54 55 54 54 54 53 53 53 52 52 53 51 51 51 50 49 49 49 49 50 48 47 47 47 48 48 48 48 48 49 48 48 49 47 49 48 47 47 47 48 48 49 50 51 50 50 50 50 50 47 45 41 39 39 36 36 33 35 37 42 39 36 37
55 54 55 54 53 53 52 52 52 52 51 51 51 51 50 49 49 49 48 48 47 47 46 46 47 47 48 47 47 49 49 48 48 47 47 47 47 48 47 46 46 46 47 48 48 48 48 48 49 47 44 41 38 39 38 38 37 36 34 39 36 39 38
55 54 54 54 53 53 52 52 53 51 51 50 50 50 50 49 49 49 48 48 47 46 46 46 47 47 46 47 47 47 48 47 47 47 47 47 47 46 46 46 46 46 46 46 45 46 47 46 47 47 45 41 38 38 38 39 38 35 35 37 38 37 37
56 55 54 54 53 53 52 52 52 51 50 50 49 49 48 49 48 47 48 47 47 46 47 47 46 46 47 47 47 47 47 47 47 47 47 47 46 46 45 45 44 45 45 45 44 45 45 45 45 45 44 42 39 38 39 39 37 38 37 36 39 35 38
56 56 56 56 54 54 53 53 52 50 50 50 50 49 49 48 47 47 47 47 47 47 47 47 46 46 47 47 47 47 47 47 46 47 47 47 50 45 45 44 45 44 44 44 44 45 45 45 45 45 43 42 40 41 43 41 41 41 37 35 38 40 41
55 55 56 56 57 55 53 53 52 51 50 50 50 49 48 48 48 47 47 47 47 47 48 47 47 47 47 47 46 47 47 47 47 47 47 48 47 46 46 46 46 45 44 44 44 44 45 45 45 45 44 44 44 45 43 44 43 40 37 36 38 39 41
55 55 56 56 56 57 55 54 53 51 51 50 51 49 48 48 49 47 47 47 48 48 48 47 46 47 47 46 46 46 47 47 47 46 47 48 47 46 46 47 46 45 44 44 45 45 45 45 46 44 45 45 45 44 44 44 43 40 38 38 39 39 40
56 56 56 56 56 56 55 53 53 53 51 50 51 50 48 48 48 47 47 47 48 49 48 47 47 47 48 47 46 46 47 47 47 46 46 46 46 46 46 46 47 46 46 46 45 46 45 45 45 45 44 45 45 44 44 44 43 41 40 40 38 39 41
56 56 56 56 56 56 55 55 55 53 51 51 51 50 49 49 49 48 47 47 48 49 49 48 48 48 48 47 46 46 47 47 47 46 46 46 47 47 47 47 46 46 49 52 50 48 48 48 45 45 43 44 44 44 44 44 44 43 41 41 40 41 41
56 56 55 54 54 55 55 55 55 54 54 54 53 52 48 49 48 47 47 46 47 48 48 49 50 48 48 48 47 47 48 47 47 46 46 47 48 49 48 48 50 55 54 52 49 46 45 45 47 46 45 45 45 44 43 43 43 43 43 42 42 43 41
55 55 55 55 54 54 54 55 54 54 53 53 53 53 52 50 47 47 47 46 46 48 48 49 46 43 43 46 48 48 47 47 47 47 48 48 48 49 49 49 49 52 52 52 47 44 43 43 43 43 44 45 46 44 43 43 43 43 44 43 42 42 42
55 54 54 54 54 54 54 53 53 53 53 53 53 52 53 51 51 50 47 46 46 47 47 47 43 43 42 41 45 48 48 48 49 48 49 49 49 49 49 49 49 49 47 47 46 46 45 43 42 42 41 42 42 42 43 43 44 43 43 43 42 43 42
50 52 53 54 53 53 53 53 52 53 53 52 51 51 51 51 51 51 48 46 46 48 47 45 42 42 41 41 41 45 48 48 49 49 49 50 50 50 50 49 50 50 48 52 51 45 46 44 42 42 42 42 42 42 41 41 42 45 45 44 43 43 43
39 40 42 43 47 49 50 51 50 51 51 51 51 51 51 51 51 51 51 51 49 48 49 48 45 42 41 40 40 41 47 48 48 49 50 50 51 51 51 51 51 50 50 50 49 46 45 44 42 42 41 42 42 39 40 41 42 42 44 45 44 44 44
38 38 38 38 38 39 42 43 44 47 49 49 49 49 50 50 51 51 51 50 50 51 51 48 45 42 41 40 40 40 47 48 49 49 50 50 51 51 51 52 51 51 51 51 50 47 46 44 43 43 42 41 38 39 41 41 43 44 46 46 46 45 45
37 37 37 37 37 37 38 39 40 43 44 45 45 45 45 46 47 48 49 50 50 51 52 46 42 41 41 42 42 46 48 50 50 51 51 51 51 52 51 52 51 51 51 52 49 44 44 45 44 43 43 41 39 38 37 40 37 38 43 46 47 46 46
37 36 36 36 36 36 36 37 38 40 41 42 42 42 43 44 45 46 48 48 49 50 51 48 43 41 41 41 42 47 47 50 51 51 51 51 52 52 52 52 51 52 51 52 49 43 41 43 45 45 44 42 41 38 38 37 39 40 42 42 42 41 40
36 36 36 37 37 37 37 37 37 38 37 37 37 38 41 42 42 44 45 46 48 49 50 49 46 44 41 40 43 49 49 49 49 49 49 50 51 51 51 52 54 53 52 52 47 43 41 44 46 46 46 44 42 40 38 36 39 38 38 38 37 36 36
36 36 36 36 37 38 38 37 37 37 36 36 37 37 39 38 38 39 41 43 47 47 47 47 45 44 43 41 43 49 50 49 49 48 49 50 49 47 48 52 51 51 52 50 46 42 41 43 46 47 47 46 44 42 41 37 40 39 38 38 38 38 38
36 36 35 35 36 36 37 36 36 36 36 35 35 36 36 37 37 38 40 41 42 43 45 46 46 43 43 43 41 46 48 49 50 50 49 49 48 47 49 49 49 45 43 43 43 41 41 41 44 47 47 46 46 45 41 39 40 40 40 41 39 38 36
36 36 36 36 36 36 36 36 36 35 35 35 35 35 35 36 36 36 37 39 41 41 43 43 43 41 41 42 42 41 48 50 50 50 50 48 48 49 49 49 50 47 45 44 42 41 41 40 42 48 48 48 47 45 40 40 40 40 39 37 35 34 33
37 37 37 36 35 35 35 36 36 35 35 35 34 34 34 35 34 35 35 36 37 38 41 42 42 40 39 39 40 41 45 49 50 50 50 49 48 48 49 49 49 48 45 44 43 42 41 41 40 47 49 44 39 37 41 41 40 38 37 36 35 35 36
36 37 36 36 35 35 35 35 35 35 35 34 34 34 34 34 34 34 34 35 36 37 37 38 38 39 38 38 38 39 40 42 42 47 49 49 49 49 49 49 48 46 43 43 42 41 41 40 40 44 44 41 37 37 39 41 40 40 39 39 39 38 37
36 35 36 36 36 34 34 35 35 35 34 34 34 33 33 34 33 33 33 34 35 35 36 36 37 37 37 37 38 39 40 39 39 44 48 49 50 49 48 47 47 44 43 42 41 41 40 40 43 42 41 38 37 38 42 40 40 40 38 38 38 37 37

ECMWFFLT1_sfc_dewp_048.txt.gz
Dewpoint
60 59 59 59 58 60 60 60 60 61 61 61 61 61 61 61 60 60 60 61 61 61 62 61 61 61 61 61 61 60 59 60 59 58 58 58 59 58 58 57 57 57 56 56 57 56 55 54 55 57 56 56 57 56 55 54 52 51 51 50 47 47 48
59 59 59 59 59 59 59 58 59 59 59 59 59 60 60 61 62 60 60 60 61 61 63 61 60 61 61 61 61 60 59 59 59 59 58 58 58 58 57 56 57 56 56 56 57 56 56 55 55 55 54 55 55 53 52 51 50 51 51 51 49 48 49
58 57 58 57 57 58 58 57 58 58 57 57 57 58 59 60 61 60 60 60 61 61 63 61 60 61 60 60 61 60 60 59 59 59 59 58 59 58 59 57 56 55 55 55 55 57 56 56 55 54 55 55 54 51 52 50 49 49 47 48 47 45 46
57 57 56 55 55 56 57 57 57 55 55 55 57 57 57 58 59 60 60 60 60 62 62 60 60 61 61 60 60 60 60 59 59 59 58 58 58 58 57 58 57 56 55 54 55 56 55 55 55 55 54 54 53 51 50 49 48 45 44 46 46 45 46
57 57 57 55 56 56 56 56 54 55 55 55 55 56 56 56 58 58 59 59 60 60 60 60 60 60 61 60 60 60 60 59 59 59 58 58 57 58 58 57 57 56 54 55 56 56 56 56 55 54 52 51 49 47 46 49 46 46 45 43 44 45 46
58 57 56 55 55 56 55 55 55 55 54 55 55 56 55 55 56 56 57 58 59 59 59 59 59 60 60 60 60 60 59 59 59 58 58 58 58 58 58 57 58 56 55 56 56 56 57 57 55 52 50 50 49 47 45 47 45 44 45 44 43 44 43
57 57 55 55 55 55 56 55 55 55 55 55 55 55 55 55 55 56 57 57 57 57 58 58 58 59 59 60 60 60 59 59 58 58 58 57 57 57 58 57 57 56 55 56 56 56 56 55 53 52 50 48 49 45 40 43 42 43 42 46 45 44 44
57 56 55 56 55 55 55 55 55 55 55 55 55 55 56 55 55 54 55 56 56 57 57 58 58 58 59 59 59 58 58 58 58 58 57 57 57 57 57 58 57 56 56 55 55 56 56 55 53 51 50 48 46 45 43 36 39 44 45 44 46 45 45
57 56 55 56 56 56 55 55 54 54 55 55 54 54 54 54 54 54 55 55 55 56 56 56 56 57 57 57 57 57 57 58 58 57 57 57 57 57 57 56 57 56 56 55 55 56 56 55 53 52 52 50 47 44 41 44 41 40 41 43 43 45 45
55 55 55 55 56 55 55 55 55 54 54 54 54 54 54 53 53 53 53 54 55 55 55 55 55 55 55 56 55 54 55 54 57 57 56 57 56 56 57 57 57 56 56 55 54 55 55 53 52 52 51 50 49 45 42 43 44 42 41 40 42 44 45
55 55 55 55 56 55 55 55 54 54 54 54 55 55 53 53 55 56 52 53 53 54 54 53 53 53 52 52 51 52 51 52 54 53 55 55 55 56 56 56 56 56 56 54 54 54 53 51 50 51 51 50 49 46 45 45 45 43 45 43 42 43 44
55 55 55 55 56 55 55 55 54 54 53 54 55 53 53 52 51 51 51 52 52 52 52 52 52 51 51 51 52 51 51 51 52 51 51 53 53 55 56 56 55 56 55 55 54 53 52 50 50 48 47 48 48 48 46 46 44 44 45 45 44 39 44
55 55 55 55 55 55 55 54 54 53 53 54 53 53 52 51 50 50 50 51 51 51 51 50 51 50 51 51 51 51 50 50 50 50 50 51 52 53 55 55 54 55 55 54 54 53 51 50 49 46 45 45 44 46 47 44 43 42 43 46 45 39 42
55 55 55 55 55 55 54 54 53 53 53 53 52 52 51 50 50 50 50 51 50 50 50 50 50 50 51 50 50 50 50 49 49 49 50 49 49 51 53 54 53 54 54 54 53 53 51 49 48 47 45 44 42 43 43 44 42 41 41 45 45 39 40
55 55 55 54 54 54 53 53 53 53 52 52 52 51 50 51 50 50 50 49 48 48 49 49 49 50 50 50 50 50 49 49 49 48 49 48 49 49 51 52 51 51 52 53 53 51 51 50 46 44 43 42 40 41 43 42 41 43 40 43 42 41 41
55 55 54 54 54 53 53 53 53 52 52 51 52 51 50 50 49 49 49 48 47 47 48 48 48 49 49 49 49 49 49 49 49 49 49 48 47 48 49 51 49 49 50 51 52 52 51 51 49 45 44 42 41 41 39 41 42 41 40 40 44 39 41
55 54 54 53 53 53 53 53 53 52 51 51 51 51 50 49 49 48 49 48 47 47 48 48 47 48 48 48 49 49 49 49 49 49 49 48 47 47 48 48 48 48 49 49 48 49 49 50 51 50 47 45 43 41 42 43 43 43 42 39 42 35 39
55 55 55 54 53 53 53 53 52 51 51 50 49 50 50 49 48 48 48 48 48 47 48 48 47 47 48 48 48 49 49 48 49 49 49 48 51 47 47 48 47 47 48 48 47 47 47 49 47 49 49 45 42 42 43 43 43 43 41 40 41 42 43
55 55 55 55 55 54 53 53 52 51 50 50 49 49 49 49 49 47 47 48 48 48 48 48 47 47 48 48 48 49 49 49 49 49 48 49 48 47 47 46 46 47 47 48 47 47 47 47 46 47 47 45 42 43 44 44 44 44 40 39 41 42 45
55 55 55 55 56 55 54 54 54 53 52 51 50 49 49 48 51 48 48 48 48 48 49 48 48 48 48 48 48 48 49 48 48 49 48 49 48 48 47 47 47 47 47 47 47 47 47 47 48 47 47 47 43 44 44 43 42 41 41 41 42 43 43
55 56 55 55 56 55 55 55 54 54 53 52 51 50 49 48 49 48 48 48 48 50 48 47 47 48 49 48 48 48 48 49 48 48 48 48 48 47 47 48 47 46 47 47 48 48 48 48 48 47 47 47 46 45 44 45 44 41 41 42 42 42 44
55 55 54 54 54 55 55 55 54 54 54 53 53 51 50 50 49 49 48 48 48 49 49 48 48 49 49 48 48 48 48 49 49 48 48 48 48 48 48 48 48 47 50 51 50 48 48 48 47 47 47 47 46 45 45 45 44 42 42 42 42 44 44
55 54 54 55 55 55 55 55 54 54 54 53 53 52 49 50 49 49 48 47 48 49 49 49 51 48 49 49 48 47 49 49 48 48 48 48 48 49 50 50 52 55 53 51 48 45 44 45 47 47 47 47 47 45 45 45 45 44 43 42 41 43 42
54 54 54 54 54 55 55 54 54 54 53 53 52 53 53 52 51 49 48 48 48 48 49 49 46 44 44 46 48 48 48 49 49 48 48 48 48 49 50 50 51 52 54 53 50 44 43 43 43 43 44 45 46 46 46 46 45 46 44 43 44 43 42
51 52 53 53 53 53 53 53 53 53 52 52 52 52 52 52 52 52 50 48 47 48 48 47 44 43 42 43 46 49 49 49 49 48 48 48 49 50 50 50 50 51 50 51 50 48 46 43 42 42 42 42 42 42 43 46 46 46 46 45 44 44 44
41 42 44 46 47 47 47 47 48 49 50 50 50 50 50 50 51 52 52 52 52 50 49 46 44 43 42 41 41 45 48 49 49 49 49 49 49 50 50 50 50 50 50 52 53 49 48 47 44 43 42 42 41 41 40 40 42 47 47 47 46 45 44
38 38 38 39 41 41 41 42 45 46 46 46 45 45 46 47 48 49 50 51 51 51 52 45 41 41 41 41 40 41 47 49 49 49 49 50 50 50 51 50 49 50 51 51 52 50 48 47 46 45 45 46 46 45 42 40 40 41 44 47 47 46 46
38 37 39 40 39 40 38 39 40 43 43 43 43 43 43 44 45 46 47 49 49 50 51 42 41 41 40 40 41 40 45 47 49 49 50 50 50 51 51 51 51 50 51 52 51 49 49 48 46 46 45 45 45 45 44 45 46 47 47 48 48 47 48
37 37 39 39 39 40 39 38 39 41 41 41 42 42 41 42 43 43 44 46 47 47 48 41 41 41 41 39 40 46 46 47 48 50 50 50 51 52 51 51 51 51 51 52 49 44 45 48 47 46 46 46 44 42 42 40 38 39 44 48 49 49 49
36 36 37 36 37 38 39 39 38 39 39 40 39 39 40 41 41 42 42 43 45 45 46 43 40 40 40 40 44 48 48 49 49 50 50 51 52 52 52 52 52 52 52 52 48 45 42 44 47 46 46 46 45 42 43 42 40 38 40 41 42 43 43
36 36 36 36 37 37 37 37 37 38 37 36 40 39 40 39 39 40 40 42 43 43 43 43 39 39 39 40 43 48 50 50 50 49 51 51 52 52 52 52 53 53 53 53 47 44 41 45 48 48 47 46 46 45 44 41 43 41 38 37 37 37 38
36 35 35 36 36 37 37 37 37 37 36 36 37 37 39 37 37 37 39 40 42 41 42 42 39 37 38 39 43 47 49 50 50 50 50 51 51 50 49 51 50 51 52 51 46 43 40 45 50 47 47 48 47 46 46 42 43 42 41 41 41 41 39
37 36 35 36 36 36 37 36 36 36 36 35 35 36 36 36 36 36 37 38 39 40 41 41 40 37 37 38 39 44 47 49 50 51 51 51 51 49 46 47 47 44 43 43 43 42 40 42 49 49 49 49 49 48 49 43 44 44 44 44 42 43 42
36 36 36 36 37 37 36 36 36 35 35 35 35 35 35 36 36 36 36 37 38 38 40 39 39 37 37 37 38 40 44 46 47 48 49 50 51 51 50 50 50 46 43 42 41 41 41 40 43 49 49 50 50 50 43 45 43 41 44 42 40 39 37
37 37 37 36 35 35 36 36 36 36 35 35 35 35 35 35 35 35 35 36 37 37 38 39 38 37 37 37 37 39 42 44 44 44 46 48 50 51 51 51 51 48 44 43 42 41 40 40 39 47 49 43 43 40 46 46 44 42 42 40 37 36 36
36 36 36 36 35 35 36 36 36 36 35 35 34 34 34 34 34 34 34 35 35 36 36 37 37 37 37 36 37 38 38 40 38 43 45 45 47 49 50 50 49 46 43 42 42 42 41 40 40 44 42 41 41 39 41 44 42 42 40 39 37 37 37
35 35 36 36 36 35 35 35 35 35 35 35 34 34 34 34 33 33 33 33 34 35 36 36 37 36 37 36 37 37 37 37 38 41 43 44 46 46 48 49 48 42 41 40 40 41 40 40 43 40 39 40 39 39 44 42 42 42 39 39 39 37 36